Observation data for Coyanosa on 08/20/2019      Previous  Date       Current Mesonet Observations  Soil Data  Daily Summary Page  Observations in Plain Language
KCO1 200500Z 14008KT 29/13 A3003 RMK A01 T02920129  RH  037%=      5-min Rain = 0
KCO1 200501Z 13009KT 29/13 A3003 RMK A01 T02920129  RH  037%=      5-min Rain = 0
KCO1 200502Z 13009KT 29/13 A3003 RMK A01 T02920130  RH  037%=      5-min Rain = 0
KCO1 200503Z 13010KT 29/13 A3003 RMK A01 T02910130  RH  037%=      5-min Rain = 0
KCO1 200504Z 13009KT 29/13 A3003 RMK A01 T02910131  RH  037%=      5-min Rain = 0
KCO1 200505Z 13009KT 29/13 A3003 RMK A01 T02910131  RH  037%=      5-min Rain = 0
KCO1 200506Z 13009KT 29/13 A3003 RMK A01 T02910131  RH  037%=      5-min Rain = 0
KCO1 200507Z 13010KT 29/13 A3003 RMK A01 T02910132  RH  038%=      5-min Rain = 0
KCO1 200508Z 13010KT 29/13 A3003 RMK A01 T02920133  RH  038%=      5-min Rain = 0
KCO1 200509Z 13009KT 29/13 A3003 RMK A01 T02920133  RH  038%=      5-min Rain = 0
KCO1 200510Z 13010KT 29/13 A3003 RMK A01 T02920134  RH  038%=      5-min Rain = 0
KCO1 200511Z 13011KT 29/13 A3003 RMK A01 T02920134  RH  038%=      5-min Rain = 0
KCO1 200512Z 13010KT 29/14 A3003 RMK A01 T02930135  RH  038%=      5-min Rain = 0
KCO1 200513Z 13009KT 29/14 A3003 RMK A01 T02930135  RH  038%=      5-min Rain = 0
KCO1 200514Z 13009KT 29/14 A3003 RMK A01 T02930136  RH  038%=      5-min Rain = 0
KCO1 200515Z 13010KT 29/14 A3003 RMK A01 T02930136  RH  038%=      5-min Rain = 0
KCO1 200516Z 13010KT 29/14 A3003 RMK A01 T02930136  RH  038%=      5-min Rain = 0
KCO1 200517Z 13009KT 29/14 A3003 RMK A01 T02930136  RH  038%=      5-min Rain = 0
KCO1 200518Z 13010KT 29/14 A3003 RMK A01 T02930136  RH  038%=      5-min Rain = 0
KCO1 200519Z 13008KT 29/14 A3003 RMK A01 T02930137  RH  038%=      5-min Rain = 0
KCO1 200520Z 13010KT 29/14 A3003 RMK A01 T02930137  RH  039%=      5-min Rain = 0
KCO1 200521Z 13009KT 29/14 A3003 RMK A01 T02930138  RH  039%=      5-min Rain = 0
KCO1 200522Z 13009KT 29/14 A3003 RMK A01 T02930138  RH  039%=      5-min Rain = 0
KCO1 200523Z 13009KT 29/14 A3003 RMK A01 T02930138  RH  039%=      5-min Rain = 0
KCO1 200524Z 13010KT 29/14 A3003 RMK A01 T02920138  RH  039%=      5-min Rain = 0
KCO1 200525Z 13009KT 29/14 A3003 RMK A01 T02920139  RH  039%=      5-min Rain = 0
KCO1 200526Z 12008KT 29/14 A3003 RMK A01 T02910139  RH  039%=      5-min Rain = 0
KCO1 200527Z 12008KT 29/14 A3003 RMK A01 T02910139  RH  039%=      5-min Rain = 0
KCO1 200528Z 12008KT 29/14 A3003 RMK A01 T02910139  RH  039%=      5-min Rain = 0
KCO1 200529Z 12008KT 29/14 A3003 RMK A01 T02910139  RH  039%=      5-min Rain = 0
KCO1 200530Z 12008KT 29/14 A3003 RMK A01 T02900139  RH  040%=      5-min Rain = 0
KCO1 200531Z 12008KT 29/14 A3003 RMK A01 T02900139  RH  040%=      5-min Rain = 0
KCO1 200532Z 12008KT 29/14 A3003 RMK A01 T02890139  RH  040%=      5-min Rain = 0
KCO1 200533Z 12008KT 29/14 A3003 RMK A01 T02890140  RH  040%=      5-min Rain = 0
KCO1 200534Z 12008KT 29/14 A3003 RMK A01 T02880140  RH  040%=      5-min Rain = 0
KCO1 200535Z 12008KT 29/14 A3003 RMK A01 T02880140  RH  040%=      5-min Rain = 0
KCO1 200536Z 12008KT 29/14 A3003 RMK A01 T02880140  RH  040%=      5-min Rain = 0
KCO1 200537Z 12008KT 29/14 A3003 RMK A01 T02870139  RH  040%=      5-min Rain = 0
KCO1 200538Z 11008KT 29/14 A3003 RMK A01 T02870140  RH  040%=      5-min Rain = 0
KCO1 200539Z 12007KT 29/14 A3003 RMK A01 T02870139  RH  040%=      5-min Rain = 0
KCO1 200540Z 12007KT 29/14 A3003 RMK A01 T02860139  RH  041%=      5-min Rain = 0
KCO1 200541Z 12007KT 29/14 A3003 RMK A01 T02860140  RH  041%=      5-min Rain = 0
KCO1 200542Z 12007KT 29/14 A3003 RMK A01 T02850140  RH  041%=      5-min Rain = 0
KCO1 200543Z 11008KT 29/14 A3003 RMK A01 T02850140  RH  041%=      5-min Rain = 0
KCO1 200544Z 12008KT 29/14 A3003 RMK A01 T02850140  RH  041%=      5-min Rain = 0
KCO1 200545Z 12008KT 28/14 A3003 RMK A01 T02840140  RH  041%=      5-min Rain = 0
KCO1 200546Z 12007KT 28/14 A3003 RMK A01 T02840140  RH  041%=      5-min Rain = 0
KCO1 200547Z 12007KT 28/14 A3003 RMK A01 T02840140  RH  041%=      5-min Rain = 0
KCO1 200548Z 12007KT 28/14 A3003 RMK A01 T02830140  RH  041%=      5-min Rain = 0
KCO1 200549Z 12006KT 28/14 A3003 RMK A01 T02830140  RH  042%=      5-min Rain = 0
KCO1 200550Z 12007KT 28/14 A3003 RMK A01 T02820140  RH  042%=      5-min Rain = 0
KCO1 200551Z 12007KT 28/14 A3003 RMK A01 T02820140  RH  042%=      5-min Rain = 0
KCO1 200552Z 12007KT 28/14 A3003 RMK A01 T02820141  RH  042%=      5-min Rain = 0
KCO1 200553Z 12007KT 28/14 A3003 RMK A01 T02820141  RH  042%=      5-min Rain = 0
KCO1 200554Z 12007KT 28/14 A3003 RMK A01 T02810141  RH  042%=      5-min Rain = 0
KCO1 200555Z 12008KT 28/14 A3003 RMK A01 T02810141  RH  042%=      5-min Rain = 0
KCO1 200556Z 12007KT 28/14 A3003 RMK A01 T02810142  RH  042%=      5-min Rain = 0
KCO1 200557Z 12007KT 28/14 A3003 RMK A01 T02810142  RH  043%=      5-min Rain = 0
KCO1 200558Z 12008KT 28/14 A3003 RMK A01 T02810142  RH  042%=      5-min Rain = 0
KCO1 200559Z 13007KT 28/14 A3003 RMK A01 T02810142  RH  043%=      5-min Rain = 0
KCO1 200600Z 12007KT 28/14 A3003 RMK A01 T02810143  RH  043%=      5-min Rain = 0
KCO1 200601Z 12006KT 28/14 A3003 RMK A01 T02810143  RH  043%=      5-min Rain = 0
KCO1 200602Z 12007KT 28/14 A3003 RMK A01 T02800143  RH  043%=      5-min Rain = 0
KCO1 200603Z 12007KT 28/14 A3003 RMK A01 T02800143  RH  043%=      5-min Rain = 0
KCO1 200604Z 13007KT 28/14 A3003 RMK A01 T02800143  RH  043%=      5-min Rain = 0
KCO1 200605Z 12007KT 28/14 A3003 RMK A01 T02800143  RH  043%=      5-min Rain = 0
KCO1 200606Z 12007KT 28/14 A3003 RMK A01 T02790143  RH  043%=      5-min Rain = 0
KCO1 200607Z 12007KT 28/14 A3003 RMK A01 T02790143  RH  043%=      5-min Rain = 0
KCO1 200608Z 13006KT 28/14 A3003 RMK A01 T02790144  RH  044%=      5-min Rain = 0
KCO1 200609Z 12006KT 28/14 A3003 RMK A01 T02780144  RH  044%=      5-min Rain = 0
KCO1 200610Z 13007KT 28/14 A3003 RMK A01 T02780144  RH  044%=      5-min Rain = 0
KCO1 200611Z 13007KT 28/14 A3003 RMK A01 T02770144  RH  044%=      5-min Rain = 0
KCO1 200612Z 13007KT 28/14 A3003 RMK A01 T02770144  RH  044%=      5-min Rain = 0
KCO1 200613Z 13007KT 28/15 A3003 RMK A01 T02770145  RH  044%=      5-min Rain = 0
KCO1 200614Z 13007KT 28/15 A3003 RMK A01 T02760145  RH  044%=      5-min Rain = 0
KCO1 200615Z 12006KT 28/15 A3003 RMK A01 T02760145  RH  045%=      5-min Rain = 0
KCO1 200616Z 13007KT 28/15 A3003 RMK A01 T02760145  RH  045%=      5-min Rain = 0
KCO1 200617Z 12007KT 28/15 A3003 RMK A01 T02760145  RH  045%=      5-min Rain = 0
KCO1 200618Z 12007KT 28/15 A3003 RMK A01 T02760145  RH  045%=      5-min Rain = 0
KCO1 200619Z 12007KT 28/15 A3003 RMK A01 T02760145  RH  045%=      5-min Rain = 0
KCO1 200620Z 12007KT 28/15 A3003 RMK A01 T02750146  RH  045%=      5-min Rain = 0
KCO1 200621Z 12007KT 28/15 A3003 RMK A01 T02750146  RH  045%=      5-min Rain = 0
KCO1 200622Z 12007KT 28/15 A3003 RMK A01 T02750146  RH  045%=      5-min Rain = 0
KCO1 200623Z 12007KT 28/15 A3003 RMK A01 T02750146  RH  045%=      5-min Rain = 0
KCO1 200624Z 12008KT 28/15 A3003 RMK A01 T02750147  RH  045%=      5-min Rain = 0
KCO1 200625Z 12007KT 28/15 A3003 RMK A01 T02750147  RH  045%=      5-min Rain = 0
KCO1 200626Z 12007KT 28/15 A3003 RMK A01 T02750147  RH  046%=      5-min Rain = 0
KCO1 200627Z 12007KT 28/15 A3002 RMK A01 T02750147  RH  046%=      5-min Rain = 0
KCO1 200628Z 12008KT 27/15 A3002 RMK A01 T02740147  RH  046%=      5-min Rain = 0
KCO1 200629Z 12007KT 28/15 A3002 RMK A01 T02750148  RH  046%=      5-min Rain = 0
KCO1 200630Z 12007KT 27/15 A3002 RMK A01 T02740148  RH  046%=      5-min Rain = 0
KCO1 200631Z 12007KT 27/15 A3002 RMK A01 T02740148  RH  046%=      5-min Rain = 0
KCO1 200632Z 12007KT 27/15 A3002 RMK A01 T02740148  RH  046%=      5-min Rain = 0
KCO1 200633Z 13007KT 27/15 A3002 RMK A01 T02740148  RH  046%=      5-min Rain = 0
KCO1 200634Z 12007KT 27/15 A3002 RMK A01 T02730148  RH  046%=      5-min Rain = 0
KCO1 200635Z 13007KT 27/15 A3002 RMK A01 T02740149  RH  046%=      5-min Rain = 0
KCO1 200636Z 13008KT 27/15 A3002 RMK A01 T02730149  RH  046%=      5-min Rain = 0
KCO1 200637Z 13008KT 27/15 A3002 RMK A01 T02730149  RH  046%=      5-min Rain = 0
KCO1 200638Z 13008KT 27/15 A3002 RMK A01 T02740149  RH  047%=      5-min Rain = 0
KCO1 200639Z 13007KT 27/15 A3002 RMK A01 T02740149  RH  047%=      5-min Rain = 0
KCO1 200640Z 13007KT 27/15 A3002 RMK A01 T02730150  RH  047%=      5-min Rain = 0
KCO1 200641Z 13007KT 27/15 A3002 RMK A01 T02730150  RH  047%=      5-min Rain = 0
KCO1 200642Z 13008KT 27/15 A3002 RMK A01 T02730150  RH  047%=      5-min Rain = 0
KCO1 200643Z 13007KT 27/15 A3002 RMK A01 T02730150  RH  047%=      5-min Rain = 0
KCO1 200644Z 13007KT 27/15 A3002 RMK A01 T02730150  RH  047%=      5-min Rain = 0
KCO1 200645Z 13006KT 27/15 A3002 RMK A01 T02730150  RH  047%=      5-min Rain = 0
KCO1 200646Z 13007KT 27/15 A3002 RMK A01 T02730151  RH  047%=      5-min Rain = 0
KCO1 200647Z 13006KT 27/15 A3002 RMK A01 T02720151  RH  047%=      5-min Rain = 0
KCO1 200648Z 13007KT 27/15 A3002 RMK A01 T02720151  RH  048%=      5-min Rain = 0
KCO1 200649Z 13007KT 27/15 A3002 RMK A01 T02720151  RH  048%=      5-min Rain = 0
KCO1 200650Z 13007KT 27/15 A3002 RMK A01 T02720151  RH  048%=      5-min Rain = 0
KCO1 200651Z 13006KT 27/15 A3002 RMK A01 T02720152  RH  048%=      5-min Rain = 0
KCO1 200652Z 13006KT 27/15 A3002 RMK A01 T02710152  RH  048%=      5-min Rain = 0
KCO1 200653Z 12007KT 27/15 A3002 RMK A01 T02710152  RH  048%=      5-min Rain = 0
KCO1 200654Z 12007KT 27/15 A3002 RMK A01 T02710152  RH  048%=      5-min Rain = 0
KCO1 200655Z 12007KT 27/15 A3002 RMK A01 T02700152  RH  048%=      5-min Rain = 0
KCO1 200656Z 12006KT 27/15 A3002 RMK A01 T02700152  RH  048%=      5-min Rain = 0
KCO1 200657Z 12006KT 27/15 A3002 RMK A01 T02700152  RH  049%=      5-min Rain = 0
KCO1 200658Z 12007KT 27/15 A3002 RMK A01 T02700153  RH  049%=      5-min Rain = 0
KCO1 200659Z 12006KT 27/15 A3002 RMK A01 T02700153  RH  049%=      5-min Rain = 0
KCO1 200700Z 12007KT 27/15 A3002 RMK A01 T02700153  RH  049%=      5-min Rain = 0
KCO1 200701Z 12007KT 27/15 A3002 RMK A01 T02700153  RH  049%=      5-min Rain = 0
KCO1 200702Z 12007KT 27/15 A3002 RMK A01 T02700154  RH  049%=      5-min Rain = 0
KCO1 200703Z 11006KT 27/15 A3002 RMK A01 T02700154  RH  049%=      5-min Rain = 0
KCO1 200704Z 12006KT 27/15 A3002 RMK A01 T02700154  RH  049%=      5-min Rain = 0
KCO1 200705Z 12006KT 27/15 A3002 RMK A01 T02700154  RH  049%=      5-min Rain = 0
KCO1 200706Z 11006KT 27/15 A3002 RMK A01 T02690154  RH  049%=      5-min Rain = 0
KCO1 200707Z 11006KT 27/16 A3002 RMK A01 T02690155  RH  049%=      5-min Rain = 0
KCO1 200708Z 12007KT 27/16 A3002 RMK A01 T02690155  RH  049%=      5-min Rain = 0
KCO1 200709Z 11007KT 27/16 A3002 RMK A01 T02690155  RH  049%=      5-min Rain = 0
KCO1 200710Z 11007KT 27/15 A3002 RMK A01 T02690154  RH  049%=      5-min Rain = 0
KCO1 200711Z 11006KT 27/15 A3002 RMK A01 T02690154  RH  049%=      5-min Rain = 0
KCO1 200712Z 11007KT 27/16 A3002 RMK A01 T02690155  RH  050%=      5-min Rain = 0
KCO1 200713Z 11007KT 27/15 A3002 RMK A01 T02680154  RH  050%=      5-min Rain = 0
KCO1 200714Z 12007KT 27/16 A3002 RMK A01 T02680155  RH  050%=      5-min Rain = 0
KCO1 200715Z 11007KT 27/16 A3002 RMK A01 T02680155  RH  050%=      5-min Rain = 0
KCO1 200716Z 12007KT 27/16 A3002 RMK A01 T02670155  RH  050%=      5-min Rain = 0
KCO1 200717Z 12007KT 27/16 A3002 RMK A01 T02670155  RH  050%=      5-min Rain = 0
KCO1 200718Z 11007KT 27/16 A3002 RMK A01 T02670155  RH  050%=      5-min Rain = 0
KCO1 200719Z 11007KT 27/16 A3002 RMK A01 T02670155  RH  050%=      5-min Rain = 0
KCO1 200720Z 11006KT 27/16 A3002 RMK A01 T02670156  RH  050%=      5-min Rain = 0
KCO1 200721Z 12006KT 27/16 A3002 RMK A01 T02670156  RH  050%=      5-min Rain = 0
KCO1 200722Z 11006KT 27/16 A3002 RMK A01 T02670156  RH  051%=      5-min Rain = 0
KCO1 200723Z 12006KT 27/16 A3002 RMK A01 T02660156  RH  051%=      5-min Rain = 0
KCO1 200724Z 11006KT 27/16 A3002 RMK A01 T02660156  RH  051%=      5-min Rain = 0
KCO1 200725Z 11007KT 27/16 A3002 RMK A01 T02650156  RH  051%=      5-min Rain = 0
KCO1 200726Z 11006KT 27/16 A3002 RMK A01 T02650156  RH  051%=      5-min Rain = 0
KCO1 200727Z 11006KT 27/16 A3002 RMK A01 T02650157  RH  051%=      5-min Rain = 0
KCO1 200728Z 11007KT 27/16 A3002 RMK A01 T02650158  RH  052%=      5-min Rain = 0
KCO1 200729Z 11007KT 27/16 A3002 RMK A01 T02650157  RH  052%=      5-min Rain = 0
KCO1 200730Z 11007KT 27/16 A3002 RMK A01 T02650157  RH  052%=      5-min Rain = 0
KCO1 200731Z 11007KT 27/16 A3002 RMK A01 T02650158  RH  052%=      5-min Rain = 0
KCO1 200732Z 12007KT 27/16 A3002 RMK A01 T02650158  RH  052%=      5-min Rain = 0
KCO1 200733Z 12006KT 27/16 A3002 RMK A01 T02650158  RH  052%=      5-min Rain = 0
KCO1 200734Z 11007KT 27/16 A3002 RMK A01 T02650158  RH  052%=      5-min Rain = 0
KCO1 200735Z 11007KT 27/16 A3002 RMK A01 T02650158  RH  052%=      5-min Rain = 0
KCO1 200736Z 12007KT 27/16 A3002 RMK A01 T02650159  RH  052%=      5-min Rain = 0
KCO1 200737Z 12007KT 27/16 A3002 RMK A01 T02650159  RH  052%=      5-min Rain = 0
KCO1 200738Z 12007KT 27/16 A3002 RMK A01 T02650158  RH  052%=      5-min Rain = 0
KCO1 200739Z 12006KT 27/16 A3002 RMK A01 T02650158  RH  052%=      5-min Rain = 0
KCO1 200740Z 11007KT 27/16 A3002 RMK A01 T02650159  RH  052%=      5-min Rain = 0
KCO1 200741Z 11007KT 27/16 A3002 RMK A01 T02650159  RH  052%=      5-min Rain = 0
KCO1 200742Z 11007KT 27/16 A3002 RMK A01 T02650159  RH  052%=      5-min Rain = 0
KCO1 200743Z 11006KT 27/16 A3002 RMK A01 T02650160  RH  052%=      5-min Rain = 0
KCO1 200744Z 11007KT 27/16 A3002 RMK A01 T02650159  RH  052%=      5-min Rain = 0
KCO1 200745Z 11007KT 27/16 A3002 RMK A01 T02650160  RH  052%=      5-min Rain = 0
KCO1 200746Z 11006KT 27/16 A3002 RMK A01 T02650160  RH  052%=      5-min Rain = 0
KCO1 200747Z 11006KT 27/16 A3002 RMK A01 T02650160  RH  052%=      5-min Rain = 0
KCO1 200748Z 11006KT 27/16 A3002 RMK A01 T02650160  RH  052%=      5-min Rain = 0
KCO1 200749Z 11006KT 27/16 A3002 RMK A01 T02650160  RH  053%=      5-min Rain = 0
KCO1 200750Z 11006KT 27/16 A3002 RMK A01 T02650160  RH  053%=      5-min Rain = 0
KCO1 200751Z 11006KT 27/16 A3002 RMK A01 T02650161  RH  053%=      5-min Rain = 0
KCO1 200752Z 11006KT 27/16 A3002 RMK A01 T02650161  RH  053%=      5-min Rain = 0
KCO1 200753Z 11007KT 27/16 A3002 RMK A01 T02650161  RH  053%=      5-min Rain = 0
KCO1 200754Z 11006KT 27/16 A3002 RMK A01 T02650161  RH  053%=      5-min Rain = 0
KCO1 200755Z 11007KT 27/16 A3002 RMK A01 T02650161  RH  053%=      5-min Rain = 0
KCO1 200756Z 12006KT 27/16 A3002 RMK A01 T02650161  RH  053%=      5-min Rain = 0
KCO1 200757Z 12006KT 27/16 A3002 RMK A01 T02650161  RH  053%=      5-min Rain = 0
KCO1 200758Z 12007KT 27/16 A3002 RMK A01 T02650162  RH  053%=      5-min Rain = 0
KCO1 200759Z 11006KT 27/16 A3002 RMK A01 T02650162  RH  053%=      5-min Rain = 0
KCO1 200800Z 12006KT 27/16 A3002 RMK A01 T02650162  RH  053%=      5-min Rain = 0
KCO1 200801Z 12006KT 27/16 A3002 RMK A01 T02650162  RH  053%=      5-min Rain = 0
KCO1 200802Z 12007KT 27/16 A3002 RMK A01 T02650162  RH  053%=      5-min Rain = 0
KCO1 200803Z 11006KT 27/16 A3002 RMK A01 T02650162  RH  053%=      5-min Rain = 0
KCO1 200804Z 11006KT 27/16 A3002 RMK A01 T02650162  RH  053%=      5-min Rain = 0
KCO1 200805Z 12007KT 27/16 A3002 RMK A01 T02650162  RH  053%=      5-min Rain = 0
KCO1 200806Z 12007KT 27/16 A3002 RMK A01 T02650163  RH  053%=      5-min Rain = 0
KCO1 200807Z 12007KT 27/16 A3002 RMK A01 T02650163  RH  053%=      5-min Rain = 0
KCO1 200808Z 12007KT 27/16 A3002 RMK A01 T02650163  RH  053%=      5-min Rain = 0
KCO1 200809Z 12007KT 27/16 A3002 RMK A01 T02650163  RH  053%=      5-min Rain = 0
KCO1 200810Z 12006KT 27/16 A3002 RMK A01 T02660163  RH  053%=      5-min Rain = 0
KCO1 200811Z 12006KT 27/16 A3002 RMK A01 T02660162  RH  053%=      5-min Rain = 0
KCO1 200812Z 12006KT 27/16 A3002 RMK A01 T02660163  RH  053%=      5-min Rain = 0
KCO1 200813Z 12007KT 27/16 A3002 RMK A01 T02660163  RH  053%=      5-min Rain = 0
KCO1 200814Z 12006KT 27/16 A3002 RMK A01 T02660163  RH  053%=      5-min Rain = 0
KCO1 200815Z 12006KT 27/16 A3002 RMK A01 T02660163  RH  053%=      5-min Rain = 0
KCO1 200816Z 12006KT 27/16 A3002 RMK A01 T02660163  RH  053%=      5-min Rain = 0
KCO1 200817Z 12007KT 27/16 A3002 RMK A01 T02650163  RH  053%=      5-min Rain = 0
KCO1 200818Z 12007KT 27/16 A3002 RMK A01 T02650163  RH  053%=      5-min Rain = 0
KCO1 200819Z 12006KT 27/16 A3002 RMK A01 T02650163  RH  053%=      5-min Rain = 0
KCO1 200820Z 12006KT 27/16 A3002 RMK A01 T02650163  RH  053%=      5-min Rain = 0
KCO1 200821Z 12007KT 27/16 A3002 RMK A01 T02650163  RH  054%=      5-min Rain = 0
KCO1 200822Z 12007KT 27/16 A3002 RMK A01 T02650163  RH  054%=      5-min Rain = 0
KCO1 200823Z 12006KT 27/16 A3002 RMK A01 T02660163  RH  053%=      5-min Rain = 0
KCO1 200824Z 12008KT 27/16 A3002 RMK A01 T02660163  RH  053%=      5-min Rain = 0
KCO1 200825Z 12007KT 27/16 A3002 RMK A01 T02660163  RH  053%=      5-min Rain = 0
KCO1 200826Z 12007KT 27/16 A3002 RMK A01 T02660163  RH  053%=      5-min Rain = 0
KCO1 200827Z 11007KT 27/16 A3002 RMK A01 T02660163  RH  053%=      5-min Rain = 0
KCO1 200828Z 11005KT 27/16 A3002 RMK A01 T02660163  RH  053%=      5-min Rain = 0
KCO1 200829Z 11006KT 27/16 A3002 RMK A01 T02660163  RH  053%=      5-min Rain = 0
KCO1 200830Z 11006KT 27/16 A3002 RMK A01 T02650163  RH  053%=      5-min Rain = 0
KCO1 200831Z 11006KT 26/16 A3002 RMK A01 T02640163  RH  054%=      5-min Rain = 0
KCO1 200832Z 11006KT 26/16 A3002 RMK A01 T02640163  RH  054%=      5-min Rain = 0
KCO1 200833Z 11005KT 26/16 A3002 RMK A01 T02630163  RH  054%=      5-min Rain = 0
KCO1 200834Z 11006KT 26/16 A3002 RMK A01 T02620163  RH  054%=      5-min Rain = 0
KCO1 200835Z 11006KT 26/16 A3002 RMK A01 T02620163  RH  054%=      5-min Rain = 0
KCO1 200836Z 11006KT 26/16 A3002 RMK A01 T02610163  RH  055%=      5-min Rain = 0
KCO1 200837Z 11007KT 26/16 A3002 RMK A01 T02620163  RH  055%=      5-min Rain = 0
KCO1 200838Z 11007KT 26/16 A3002 RMK A01 T02620163  RH  055%=      5-min Rain = 0
KCO1 200839Z 10007KT 26/16 A3002 RMK A01 T02620163  RH  055%=      5-min Rain = 0
KCO1 200840Z 11007KT 26/16 A3002 RMK A01 T02620164  RH  055%=      5-min Rain = 0
KCO1 200841Z 10006KT 26/16 A3002 RMK A01 T02620164  RH  055%=      5-min Rain = 0
KCO1 200842Z 11006KT 26/16 A3002 RMK A01 T02620163  RH  055%=      5-min Rain = 0
KCO1 200843Z 11006KT 26/16 A3002 RMK A01 T02620163  RH  055%=      5-min Rain = 0
KCO1 200844Z 10006KT 26/16 A3002 RMK A01 T02620163  RH  055%=      5-min Rain = 0
KCO1 200845Z 11007KT 26/16 A3002 RMK A01 T02610163  RH  055%=      5-min Rain = 0
KCO1 200846Z 10006KT 26/16 A3002 RMK A01 T02610163  RH  055%=      5-min Rain = 0
KCO1 200847Z 11006KT 26/16 A3002 RMK A01 T02610163  RH  055%=      5-min Rain = 0
KCO1 200848Z 11006KT 26/16 A3002 RMK A01 T02610163  RH  055%=      5-min Rain = 0
KCO1 200849Z 11006KT 26/16 A3002 RMK A01 T02610164  RH  055%=      5-min Rain = 0
KCO1 200850Z 11008KT 26/16 A3002 RMK A01 T02610164  RH  055%=      5-min Rain = 0
KCO1 200851Z 11007KT 26/16 A3002 RMK A01 T02610163  RH  055%=      5-min Rain = 0
KCO1 200852Z 11006KT 26/16 A3002 RMK A01 T02620164  RH  055%=      5-min Rain = 0
KCO1 200853Z 11007KT 26/16 A3002 RMK A01 T02620164  RH  055%=      5-min Rain = 0
KCO1 200854Z 11006KT 26/16 A3002 RMK A01 T02620164  RH  055%=      5-min Rain = 0
KCO1 200855Z 11006KT 26/16 A3002 RMK A01 T02620164  RH  055%=      5-min Rain = 0
KCO1 200856Z 11008KT 26/16 A3002 RMK A01 T02620164  RH  055%=      5-min Rain = 0
KCO1 200857Z 11006KT 26/16 A3002 RMK A01 T02620164  RH  055%=      5-min Rain = 0
KCO1 200858Z 10007KT 26/16 A3002 RMK A01 T02620164  RH  055%=      5-min Rain = 0
KCO1 200859Z 11006KT 26/16 A3002 RMK A01 T02620164  RH  055%=      5-min Rain = 0
KCO1 200900Z 11005KT 26/16 A3002 RMK A01 T02620164  RH  055%=      5-min Rain = 0
KCO1 200901Z 12007KT 26/16 A3002 RMK A01 T02620164  RH  055%=      5-min Rain = 0
KCO1 200902Z 11008KT 26/16 A3002 RMK A01 T02620164  RH  055%=      5-min Rain = 0
KCO1 200903Z 11006KT 26/16 A3002 RMK A01 T02620164  RH  055%=      5-min Rain = 0
KCO1 200904Z 11007KT 26/16 A3003 RMK A01 T02620164  RH  055%=      5-min Rain = 0
KCO1 200905Z 11006KT 26/16 A3002 RMK A01 T02620163  RH  055%=      5-min Rain = 0
KCO1 200906Z 11006KT 26/16 A3003 RMK A01 T02620164  RH  055%=      5-min Rain = 0
KCO1 200907Z 11006KT 26/16 A3003 RMK A01 T02610164  RH  055%=      5-min Rain = 0
KCO1 200908Z 12007KT 26/16 A3003 RMK A01 T02610164  RH  055%=      5-min Rain = 0
KCO1 200909Z 12007KT 26/16 A3003 RMK A01 T02610164  RH  055%=      5-min Rain = 0
KCO1 200910Z 11007KT 26/16 A3003 RMK A01 T02610164  RH  055%=      5-min Rain = 0
KCO1 200911Z 12008KT 26/16 A3003 RMK A01 T02620164  RH  055%=      5-min Rain = 0
KCO1 200912Z 12006KT 26/16 A3002 RMK A01 T02620164  RH  055%=      5-min Rain = 0
KCO1 200913Z 12007KT 26/16 A3002 RMK A01 T02630164  RH  055%=      5-min Rain = 0
KCO1 200914Z 12007KT 26/16 A3002 RMK A01 T02630164  RH  055%=      5-min Rain = 0
KCO1 200915Z 12008KT 26/16 A3002 RMK A01 T02630164  RH  054%=      5-min Rain = 0
KCO1 200916Z 11008KT 26/16 A3002 RMK A01 T02640164  RH  054%=      5-min Rain = 0
KCO1 200917Z 12007KT 26/16 A3002 RMK A01 T02640164  RH  054%=      5-min Rain = 0
KCO1 200918Z 12007KT 26/16 A3002 RMK A01 T02640164  RH  054%=      5-min Rain = 0
KCO1 200919Z 12006KT 27/16 A3002 RMK A01 T02650164  RH  054%=      5-min Rain = 0
KCO1 200920Z 13008G13KT 26/16 A3002 RMK A01 T02640164  RH  054%=      5-min Rain = 0
KCO1 200921Z 12009KT 27/16 A3002 RMK A01 T02650164  RH  054%=      5-min Rain = 0
KCO1 200922Z 12007KT 27/16 A3002 RMK A01 T02660164  RH  054%=      5-min Rain = 0
KCO1 200923Z 12007KT 27/16 A3002 RMK A01 T02660164  RH  054%=      5-min Rain = 0
KCO1 200924Z 12008G13KT 27/16 A3002 RMK A01 T02650164  RH  054%=      5-min Rain = 0
KCO1 200925Z 13009KT 27/16 A3002 RMK A01 T02650164  RH  054%=      5-min Rain = 0
KCO1 200926Z 12008KT 27/17 A3002 RMK A01 T02650165  RH  054%=      5-min Rain = 0
KCO1 200927Z 12007KT 27/17 A3002 RMK A01 T02660165  RH  054%=      5-min Rain = 0
KCO1 200928Z 12009KT 27/17 A3002 RMK A01 T02660165  RH  054%=      5-min Rain = 0
KCO1 200929Z 12007KT 27/17 A3002 RMK A01 T02660165  RH  054%=      5-min Rain = 0
KCO1 200930Z 11006KT 27/17 A3002 RMK A01 T02660165  RH  054%=      5-min Rain = 0
KCO1 200931Z 12006KT 27/17 A3002 RMK A01 T02650165  RH  054%=      5-min Rain = 0
KCO1 200932Z 11007KT 27/16 A3002 RMK A01 T02650164  RH  054%=      5-min Rain = 0
KCO1 200933Z 11006KT 26/16 A3002 RMK A01 T02640164  RH  054%=      5-min Rain = 0
KCO1 200934Z 11006KT 26/16 A3002 RMK A01 T02630164  RH  055%=      5-min Rain = 0
KCO1 200935Z 11006KT 26/16 A3003 RMK A01 T02620164  RH  055%=      5-min Rain = 0
KCO1 200936Z 11006KT 26/16 A3003 RMK A01 T02610164  RH  055%=      5-min Rain = 0
KCO1 200937Z 11006KT 26/16 A3003 RMK A01 T02610164  RH  055%=      5-min Rain = 0
KCO1 200938Z 11006KT 26/16 A3003 RMK A01 T02600164  RH  055%=      5-min Rain = 0
KCO1 200939Z 11005KT 26/17 A3003 RMK A01 T02600165  RH  056%=      5-min Rain = 0
KCO1 200940Z 11005KT 26/17 A3003 RMK A01 T02590165  RH  056%=      5-min Rain = 0
KCO1 200941Z 11005KT 26/17 A3003 RMK A01 T02590165  RH  056%=      5-min Rain = 0
KCO1 200942Z 11005KT 26/17 A3003 RMK A01 T02590165  RH  056%=      5-min Rain = 0
KCO1 200943Z 11007KT 26/17 A3003 RMK A01 T02580165  RH  056%=      5-min Rain = 0
KCO1 200944Z 11006KT 26/17 A3003 RMK A01 T02580165  RH  057%=      5-min Rain = 0
KCO1 200945Z 11005KT 26/17 A3003 RMK A01 T02590166  RH  056%=      5-min Rain = 0
KCO1 200946Z 11005KT 26/17 A3003 RMK A01 T02590166  RH  056%=      5-min Rain = 0
KCO1 200947Z 11005KT 26/17 A3003 RMK A01 T02580165  RH  057%=      5-min Rain = 0
KCO1 200948Z 12006KT 26/17 A3003 RMK A01 T02580165  RH  057%=      5-min Rain = 0
KCO1 200949Z 11005KT 26/17 A3003 RMK A01 T02570166  RH  057%=      5-min Rain = 0
KCO1 200950Z 11005KT 26/17 A3003 RMK A01 T02580166  RH  057%=      5-min Rain = 0
KCO1 200951Z 11005KT 26/17 A3002 RMK A01 T02570166  RH  057%=      5-min Rain = 0
KCO1 200952Z 11005KT 26/17 A3002 RMK A01 T02560166  RH  057%=      5-min Rain = 0
KCO1 200953Z 11004KT 26/17 A3002 RMK A01 T02560166  RH  057%=      5-min Rain = 0
KCO1 200954Z 12005KT 26/17 A3002 RMK A01 T02560166  RH  057%=      5-min Rain = 0
KCO1 200955Z 12005KT 26/17 A3002 RMK A01 T02550166  RH  058%=      5-min Rain = 0
KCO1 200956Z 12005KT 26/17 A3002 RMK A01 T02550166  RH  058%=      5-min Rain = 0
KCO1 200957Z 11005KT 26/17 A3002 RMK A01 T02550166  RH  058%=      5-min Rain = 0
KCO1 200958Z 12005KT 25/17 A3002 RMK A01 T02540166  RH  058%=      5-min Rain = 0
KCO1 200959Z 11005KT 25/17 A3002 RMK A01 T02540166  RH  058%=      5-min Rain = 0
KCO1 201000Z 12005KT 25/17 A3002 RMK A01 T02540166  RH  058%=      5-min Rain = 0
KCO1 201001Z 11005KT 25/17 A3002 RMK A01 T02530166  RH  058%=      5-min Rain = 0
KCO1 201002Z 11005KT 25/17 A3002 RMK A01 T02530166  RH  059%=      5-min Rain = 0
KCO1 201003Z 11005KT 25/17 A3003 RMK A01 T02530167  RH  059%=      5-min Rain = 0
KCO1 201004Z 11006KT 25/17 A3003 RMK A01 T02540167  RH  059%=      5-min Rain = 0
KCO1 201005Z 11006KT 25/17 A3003 RMK A01 T02530167  RH  059%=      5-min Rain = 0
KCO1 201006Z 11005KT 25/17 A3003 RMK A01 T02530167  RH  059%=      5-min Rain = 0
KCO1 201007Z 11006KT 25/17 A3002 RMK A01 T02530167  RH  059%=      5-min Rain = 0
KCO1 201008Z 11006KT 25/17 A3002 RMK A01 T02530167  RH  059%=      5-min Rain = 0
KCO1 201009Z 11005KT 25/17 A3002 RMK A01 T02530167  RH  059%=      5-min Rain = 0
KCO1 201010Z 12005KT 25/17 A3002 RMK A01 T02530168  RH  059%=      5-min Rain = 0
KCO1 201011Z 12006KT 25/17 A3002 RMK A01 T02520167  RH  059%=      5-min Rain = 0
KCO1 201012Z 11005KT 25/17 A3002 RMK A01 T02520167  RH  059%=      5-min Rain = 0
KCO1 201013Z 12005KT 25/17 A3002 RMK A01 T02520167  RH  059%=      5-min Rain = 0
KCO1 201014Z 12005KT 25/17 A3003 RMK A01 T02520168  RH  060%=      5-min Rain = 0
KCO1 201015Z 12005KT 25/17 A3003 RMK A01 T02510168  RH  060%=      5-min Rain = 0
KCO1 201016Z 12005KT 25/17 A3003 RMK A01 T02520168  RH  060%=      5-min Rain = 0
KCO1 201017Z 11005KT 25/17 A3003 RMK A01 T02520168  RH  060%=      5-min Rain = 0
KCO1 201018Z 12005KT 25/17 A3003 RMK A01 T02510168  RH  060%=      5-min Rain = 0
KCO1 201019Z 11005KT 25/17 A3003 RMK A01 T02510168  RH  060%=      5-min Rain = 0
KCO1 201020Z 11005KT 25/17 A3003 RMK A01 T02500168  RH  060%=      5-min Rain = 0
KCO1 201021Z 11005KT 25/17 A3003 RMK A01 T02510168  RH  060%=      5-min Rain = 0
KCO1 201022Z 11005KT 25/17 A3003 RMK A01 T02510168  RH  060%=      5-min Rain = 0
KCO1 201023Z 12005KT 25/17 A3003 RMK A01 T02510168  RH  060%=      5-min Rain = 0
KCO1 201024Z 12005KT 25/17 A3003 RMK A01 T02510168  RH  060%=      5-min Rain = 0
KCO1 201025Z 11005KT 25/17 A3003 RMK A01 T02510168  RH  060%=      5-min Rain = 0
KCO1 201026Z 12005KT 25/17 A3003 RMK A01 T02510169  RH  060%=      5-min Rain = 0
KCO1 201027Z 12005KT 25/17 A3003 RMK A01 T02500169  RH  060%=      5-min Rain = 0
KCO1 201028Z 11005KT 25/17 A3003 RMK A01 T02500168  RH  061%=      5-min Rain = 0
KCO1 201029Z 11005KT 25/17 A3003 RMK A01 T02490169  RH  061%=      5-min Rain = 0
KCO1 201030Z 11004KT 25/17 A3003 RMK A01 T02490169  RH  061%=      5-min Rain = 0
KCO1 201031Z 12004KT 25/17 A3003 RMK A01 T02490169  RH  061%=      5-min Rain = 0
KCO1 201032Z 12005KT 25/17 A3003 RMK A01 T02480169  RH  061%=      5-min Rain = 0
KCO1 201033Z 12004KT 25/17 A3003 RMK A01 T02480169  RH  061%=      5-min Rain = 0
KCO1 201034Z 12004KT 25/17 A3003 RMK A01 T02480169  RH  061%=      5-min Rain = 0
KCO1 201035Z 12004KT 25/17 A3003 RMK A01 T02480169  RH  062%=      5-min Rain = 0
KCO1 201036Z 12004KT 25/17 A3003 RMK A01 T02470169  RH  062%=      5-min Rain = 0
KCO1 201037Z 14003KT 25/17 A3003 RMK A01 T02470169  RH  062%=      5-min Rain = 0
KCO1 201038Z 14003KT 25/17 A3003 RMK A01 T02470169  RH  062%=      5-min Rain = 0
KCO1 201039Z 14003KT 25/17 A3003 RMK A01 T02470169  RH  062%=      5-min Rain = 0
KCO1 201040Z 14003KT 25/17 A3003 RMK A01 T02460170  RH  062%=      5-min Rain = 0
KCO1 201041Z 14003KT 25/17 A3003 RMK A01 T02470170  RH  062%=      5-min Rain = 0
KCO1 201042Z 14003KT 25/17 A3003 RMK A01 T02460170  RH  062%=      5-min Rain = 0
KCO1 201043Z 15003KT 25/17 A3003 RMK A01 T02460170  RH  063%=      5-min Rain = 0
KCO1 201044Z 14003KT 25/17 A3003 RMK A01 T02460170  RH  063%=      5-min Rain = 0
KCO1 201045Z 14003KT 25/17 A3003 RMK A01 T02460170  RH  063%=      5-min Rain = 0
KCO1 201046Z 14004KT 25/17 A3003 RMK A01 T02450170  RH  063%=      5-min Rain = 0
KCO1 201047Z 14004KT 25/17 A3003 RMK A01 T02450171  RH  063%=      5-min Rain = 0
KCO1 201048Z 14003KT 25/17 A3003 RMK A01 T02450171  RH  063%=      5-min Rain = 0
KCO1 201049Z 13004KT 25/17 A3003 RMK A01 T02450171  RH  063%=      5-min Rain = 0
KCO1 201050Z 13005KT 25/17 A3003 RMK A01 T02450171  RH  063%=      5-min Rain = 0
KCO1 201051Z 13005KT 25/17 A3003 RMK A01 T02450171  RH  063%=      5-min Rain = 0
KCO1 201052Z 12005KT 24/17 A3003 RMK A01 T02440171  RH  064%=      5-min Rain = 0
KCO1 201053Z 13005KT 24/17 A3003 RMK A01 T02430171  RH  064%=      5-min Rain = 0
KCO1 201054Z 12006KT 24/17 A3003 RMK A01 T02430171  RH  064%=      5-min Rain = 0
KCO1 201055Z 12006KT 24/17 A3003 RMK A01 T02420171  RH  065%=      5-min Rain = 0
KCO1 201056Z 11006KT 24/17 A3003 RMK A01 T02420172  RH  065%=      5-min Rain = 0
KCO1 201057Z 11006KT 24/17 A3003 RMK A01 T02420172  RH  065%=      5-min Rain = 0
KCO1 201058Z 11007KT 24/17 A3003 RMK A01 T02420171  RH  065%=      5-min Rain = 0
KCO1 201059Z 11007KT 24/17 A3003 RMK A01 T02420172  RH  065%=      5-min Rain = 0
KCO1 201100Z 11007KT 24/17 A3003 RMK A01 T02420172  RH  065%=      5-min Rain = 0
KCO1 201101Z 11007KT 24/17 A3003 RMK A01 T02430172  RH  065%=      5-min Rain = 0
KCO1 201102Z 11008KT 24/17 A3003 RMK A01 T02430172  RH  065%=      5-min Rain = 0
KCO1 201103Z 11007KT 24/17 A3003 RMK A01 T02440173  RH  065%=      5-min Rain = 0
KCO1 201104Z 11007KT 25/17 A3003 RMK A01 T02450173  RH  064%=      5-min Rain = 0
KCO1 201105Z 12008KT 25/17 A3003 RMK A01 T02460174  RH  064%=      5-min Rain = 0
KCO1 201106Z 11006KT 25/17 A3003 RMK A01 T02470174  RH  064%=      5-min Rain = 0
KCO1 201107Z 11006KT 25/17 A3003 RMK A01 T02470174  RH  064%=      5-min Rain = 0
KCO1 201108Z 11006KT 25/17 A3003 RMK A01 T02470173  RH  064%=      5-min Rain = 0
KCO1 201109Z 11007KT 25/17 A3003 RMK A01 T02460174  RH  064%=      5-min Rain = 0
KCO1 201110Z 11006KT 25/17 A3003 RMK A01 T02450173  RH  064%=      5-min Rain = 0
KCO1 201111Z 11006KT 25/17 A3003 RMK A01 T02460174  RH  064%=      5-min Rain = 0
KCO1 201112Z 12006KT 25/18 A3004 RMK A01 T02460175  RH  065%=      5-min Rain = 0
KCO1 201113Z 12006KT 25/18 A3004 RMK A01 T02460175  RH  065%=      5-min Rain = 0
KCO1 201114Z 12006KT 25/18 A3004 RMK A01 T02460175  RH  065%=      5-min Rain = 0
KCO1 201115Z 12006KT 25/18 A3004 RMK A01 T02460176  RH  065%=      5-min Rain = 0
KCO1 201116Z 12006KT 25/18 A3004 RMK A01 T02470176  RH  065%=      5-min Rain = 0
KCO1 201117Z 12007KT 25/18 A3004 RMK A01 T02470176  RH  065%=      5-min Rain = 0
KCO1 201118Z 12006KT 25/18 A3004 RMK A01 T02470177  RH  065%=      5-min Rain = 0
KCO1 201119Z 12007KT 25/18 A3004 RMK A01 T02470177  RH  065%=      5-min Rain = 0
KCO1 201120Z 11006KT 25/18 A3004 RMK A01 T02470178  RH  065%=      5-min Rain = 0
KCO1 201121Z 11007KT 25/18 A3004 RMK A01 T02470177  RH  065%=      5-min Rain = 0
KCO1 201122Z 11006KT 25/18 A3004 RMK A01 T02470178  RH  065%=      5-min Rain = 0
KCO1 201123Z 10006KT 25/18 A3004 RMK A01 T02470177  RH  065%=      5-min Rain = 0
KCO1 201124Z 10006KT 25/18 A3004 RMK A01 T02470177  RH  065%=      5-min Rain = 0
KCO1 201125Z 11007KT 25/18 A3004 RMK A01 T02460177  RH  065%=      5-min Rain = 0
KCO1 201126Z 12006KT 25/18 A3004 RMK A01 T02460177  RH  066%=      5-min Rain = 0
KCO1 201127Z 11008KT 25/18 A3004 RMK A01 T02450178  RH  066%=      5-min Rain = 0
KCO1 201128Z 11007KT 25/18 A3004 RMK A01 T02450180  RH  067%=      5-min Rain = 0
KCO1 201129Z 11007KT 25/18 A3004 RMK A01 T02460180  RH  067%=      5-min Rain = 0
KCO1 201130Z 11007KT 25/18 A3004 RMK A01 T02470181  RH  066%=      5-min Rain = 0
KCO1 201131Z 12008KT 25/18 A3004 RMK A01 T02480181  RH  066%=      5-min Rain = 0
KCO1 201132Z 12007KT 25/18 A3004 RMK A01 T02480181  RH  066%=      5-min Rain = 0
KCO1 201133Z 12006KT 25/18 A3004 RMK A01 T02480181  RH  066%=      5-min Rain = 0
KCO1 201134Z 12007KT 25/18 A3004 RMK A01 T02480181  RH  066%=      5-min Rain = 0
KCO1 201135Z 12007KT 25/18 A3004 RMK A01 T02480181  RH  066%=      5-min Rain = 0
KCO1 201136Z 12007KT 25/18 A3004 RMK A01 T02480181  RH  066%=      5-min Rain = 0
KCO1 201137Z 11006KT 25/18 A3004 RMK A01 T02480180  RH  066%=      5-min Rain = 0
KCO1 201138Z 12006KT 25/18 A3004 RMK A01 T02480180  RH  066%=      5-min Rain = 0
KCO1 201139Z 12007KT 25/18 A3004 RMK A01 T02460180  RH  066%=      5-min Rain = 0
KCO1 201140Z 12006KT 25/18 A3004 RMK A01 T02460180  RH  067%=      5-min Rain = 0
KCO1 201141Z 12007KT 25/18 A3004 RMK A01 T02450180  RH  067%=      5-min Rain = 0
KCO1 201142Z 11007KT 25/18 A3004 RMK A01 T02450181  RH  067%=      5-min Rain = 0
KCO1 201143Z 11007KT 25/18 A3004 RMK A01 T02450181  RH  067%=      5-min Rain = 0
KCO1 201144Z 11007KT 24/18 A3004 RMK A01 T02440180  RH  068%=      5-min Rain = 0
KCO1 201145Z 11007KT 24/18 A3004 RMK A01 T02430181  RH  068%=      5-min Rain = 0
KCO1 201146Z 11007KT 24/18 A3004 RMK A01 T02430181  RH  068%=      5-min Rain = 0
KCO1 201147Z 11007KT 24/18 A3004 RMK A01 T02430181  RH  069%=      5-min Rain = 0
KCO1 201148Z 11008KT 24/18 A3004 RMK A01 T02420182  RH  069%=      5-min Rain = 0
KCO1 201149Z 11006KT 24/18 A3004 RMK A01 T02420182  RH  069%=      5-min Rain = 0
KCO1 201150Z 11006KT 24/18 A3004 RMK A01 T02420182  RH  069%=      5-min Rain = 0
KCO1 201151Z 11006KT 24/18 A3004 RMK A01 T02420182  RH  069%=      5-min Rain = 0
KCO1 201152Z 11006KT 24/18 A3004 RMK A01 T02410182  RH  069%=      5-min Rain = 0
KCO1 201153Z 11005KT 24/18 A3005 RMK A01 T02410181  RH  069%=      5-min Rain = 0
KCO1 201154Z 11006KT 24/18 A3005 RMK A01 T02400180  RH  069%=      5-min Rain = 0
KCO1 201155Z 11006KT 24/18 A3005 RMK A01 T02390181  RH  070%=      5-min Rain = 0
KCO1 201156Z 11006KT 24/18 A3005 RMK A01 T02400182  RH  070%=      5-min Rain = 0
KCO1 201157Z 11006KT 24/18 A3005 RMK A01 T02390182  RH  070%=      5-min Rain = 0
KCO1 201158Z 11008KT 24/18 A3005 RMK A01 T02390182  RH  070%=      5-min Rain = 0
KCO1 201159Z 12007KT 24/18 A3005 RMK A01 T02400184  RH  071%=      5-min Rain = 0
KCO1 201200Z 12007KT 24/18 A3005 RMK A01 T02410184  RH  071%=      5-min Rain = 0
KCO1 201201Z 11006KT 24/18 A3005 RMK A01 T02410184  RH  070%=      5-min Rain = 0
KCO1 201202Z 11006KT 24/18 A3005 RMK A01 T02410184  RH  070%=      5-min Rain = 0
KCO1 201203Z 12006KT 24/18 A3005 RMK A01 T02410184  RH  070%=      5-min Rain = 0
KCO1 201204Z 11006KT 24/18 A3005 RMK A01 T02410184  RH  070%=      5-min Rain = 0
KCO1 201205Z 11006KT 24/18 A3005 RMK A01 T02410184  RH  070%=      5-min Rain = 0
KCO1 201206Z 11007KT 24/18 A3005 RMK A01 T02400184  RH  071%=      5-min Rain = 0
KCO1 201207Z 12007KT 24/19 A3005 RMK A01 T02400185  RH  071%=      5-min Rain = 0
KCO1 201208Z 12007KT 24/19 A3005 RMK A01 T02400185  RH  071%=      5-min Rain = 0
KCO1 201209Z 12007KT 24/19 A3005 RMK A01 T02400186  RH  072%=      5-min Rain = 0
KCO1 201210Z 12008KT 24/19 A3005 RMK A01 T02400186  RH  072%=      5-min Rain = 0
KCO1 201211Z 12007KT 24/19 A3005 RMK A01 T02410187  RH  072%=      5-min Rain = 0
KCO1 201212Z 12007KT 24/19 A3005 RMK A01 T02410187  RH  072%=      5-min Rain = 0
KCO1 201213Z 12007KT 24/19 A3005 RMK A01 T02410187  RH  072%=      5-min Rain = 0
KCO1 201214Z 12007KT 24/19 A3005 RMK A01 T02410187  RH  072%=      5-min Rain = 0
KCO1 201215Z 12008KT 24/19 A3005 RMK A01 T02410189  RH  072%=      5-min Rain = 0
KCO1 201216Z 12008KT 24/19 A3005 RMK A01 T02410189  RH  072%=      5-min Rain = 0
KCO1 201217Z 12007KT 24/19 A3005 RMK A01 T02420189  RH  072%=      5-min Rain = 0
KCO1 201218Z 12008KT 24/19 A3005 RMK A01 T02420190  RH  073%=      5-min Rain = 0
KCO1 201219Z 12009KT 24/19 A3005 RMK A01 T02420191  RH  073%=      5-min Rain = 0
KCO1 201220Z 11008KT 24/19 A3005 RMK A01 T02430191  RH  073%=      5-min Rain = 0
KCO1 201221Z 12008KT 24/19 A3005 RMK A01 T02430191  RH  073%=      5-min Rain = 0
KCO1 201222Z 12007KT 24/19 A3005 RMK A01 T02430191  RH  073%=      5-min Rain = 0
KCO1 201223Z 12008KT 24/19 A3005 RMK A01 T02430191  RH  073%=      5-min Rain = 0
KCO1 201224Z 12007KT 24/19 A3005 RMK A01 T02430192  RH  073%=      5-min Rain = 0
KCO1 201225Z 11008KT 24/19 A3005 RMK A01 T02430192  RH  073%=      5-min Rain = 0
KCO1 201226Z 11008KT 24/19 A3005 RMK A01 T02420192  RH  073%=      5-min Rain = 0
KCO1 201227Z 11009KT 24/19 A3006 RMK A01 T02420192  RH  074%=      5-min Rain = 0
KCO1 201228Z 12008KT 24/19 A3006 RMK A01 T02430193  RH  074%=      5-min Rain = 0
KCO1 201229Z 12008KT 24/19 A3006 RMK A01 T02430193  RH  074%=      5-min Rain = 0
KCO1 201230Z 12008KT 24/19 A3006 RMK A01 T02430194  RH  074%=      5-min Rain = 0
KCO1 201231Z 12008KT 24/19 A3006 RMK A01 T02430194  RH  074%=      5-min Rain = 0
KCO1 201232Z 12007KT 24/19 A3006 RMK A01 T02440194  RH  074%=      5-min Rain = 0
KCO1 201233Z 12008KT 24/19 A3006 RMK A01 T02440194  RH  074%=      5-min Rain = 0
KCO1 201234Z 12007KT 24/19 A3006 RMK A01 T02440193  RH  074%=      5-min Rain = 0
KCO1 201235Z 12007KT 24/19 A3006 RMK A01 T02440194  RH  074%=      5-min Rain = 0
KCO1 201236Z 12008KT 24/20 A3006 RMK A01 T02440195  RH  074%=      5-min Rain = 0
KCO1 201237Z 12009KT 24/20 A3006 RMK A01 T02440196  RH  075%=      5-min Rain = 0
KCO1 201238Z 12007KT 24/20 A3006 RMK A01 T02440196  RH  074%=      5-min Rain = 0
KCO1 201239Z 12008KT 25/20 A3006 RMK A01 T02450196  RH  074%=      5-min Rain = 0
KCO1 201240Z 12009KT 25/20 A3006 RMK A01 T02450197  RH  074%=      5-min Rain = 0
KCO1 201241Z 12009KT 25/20 A3006 RMK A01 T02450197  RH  074%=      5-min Rain = 0
KCO1 201242Z 12009KT 25/20 A3006 RMK A01 T02460198  RH  074%=      5-min Rain = 0
KCO1 201243Z 12009KT 25/20 A3006 RMK A01 T02470199  RH  075%=      5-min Rain = 0
KCO1 201244Z 12008KT 25/20 A3006 RMK A01 T02480199  RH  074%=      5-min Rain = 0
KCO1 201245Z 12009KT 25/20 A3006 RMK A01 T02480200  RH  074%=      5-min Rain = 0
KCO1 201246Z 12009KT 25/20 A3006 RMK A01 T02490200  RH  074%=      5-min Rain = 0
KCO1 201247Z 12009KT 25/20 A3006 RMK A01 T02490200  RH  074%=      5-min Rain = 0
KCO1 201248Z 12009KT 25/20 A3006 RMK A01 T02500200  RH  074%=      5-min Rain = 0
KCO1 201249Z 12010KT 25/20 A3006 RMK A01 T02500200  RH  074%=      5-min Rain = 0
KCO1 201250Z 12010KT 25/20 A3006 RMK A01 T02500201  RH  074%=      5-min Rain = 0
KCO1 201251Z 12010KT 25/20 A3006 RMK A01 T02510201  RH  074%=      5-min Rain = 0
KCO1 201252Z 12009KT 25/20 A3006 RMK A01 T02510201  RH  074%=      5-min Rain = 0
KCO1 201253Z 12009KT 25/20 A3006 RMK A01 T02510201  RH  074%=      5-min Rain = 0
KCO1 201254Z 13009KT 25/20 A3006 RMK A01 T02510201  RH  074%=      5-min Rain = 0
KCO1 201255Z 12008KT 25/20 A3006 RMK A01 T02510201  RH  074%=      5-min Rain = 0
KCO1 201256Z 13009KT 25/20 A3006 RMK A01 T02510201  RH  074%=      5-min Rain = 0
KCO1 201257Z 12009KT 25/20 A3006 RMK A01 T02510202  RH  074%=      5-min Rain = 0
KCO1 201258Z 13008KT 25/20 A3006 RMK A01 T02510202  RH  074%=      5-min Rain = 0
KCO1 201259Z 12008KT 25/20 A3006 RMK A01 T02520202  RH  074%=      5-min Rain = 0
KCO1 201300Z 12009KT 25/20 A3006 RMK A01 T02520202  RH  074%=      5-min Rain = 0
KCO1 201301Z 12010KT 25/20 A3006 RMK A01 T02530203  RH  074%=      5-min Rain = 0
KCO1 201302Z 12010KT 25/20 A3006 RMK A01 T02530202  RH  074%=      5-min Rain = 0
KCO1 201303Z 12009KT 25/20 A3006 RMK A01 T02530203  RH  074%=      5-min Rain = 0
KCO1 201304Z 12009KT 25/20 A3006 RMK A01 T02530203  RH  074%=      5-min Rain = 0
KCO1 201305Z 12010KT 25/20 A3006 RMK A01 T02530203  RH  074%=      5-min Rain = 0
KCO1 201306Z 12009KT 25/20 A3006 RMK A01 T02540203  RH  073%=      5-min Rain = 0
KCO1 201307Z 11009KT 25/20 A3006 RMK A01 T02540203  RH  074%=      5-min Rain = 0
KCO1 201308Z 12010KT 25/20 A3006 RMK A01 T02540204  RH  073%=      5-min Rain = 0
KCO1 201309Z 11009KT 25/20 A3006 RMK A01 T02540203  RH  073%=      5-min Rain = 0
KCO1 201310Z 11009KT 26/20 A3006 RMK A01 T02550204  RH  073%=      5-min Rain = 0
KCO1 201311Z 11008KT 26/20 A3006 RMK A01 T02550204  RH  073%=      5-min Rain = 0
KCO1 201312Z 12008KT 26/20 A3006 RMK A01 T02550204  RH  073%=      5-min Rain = 0
KCO1 201313Z 12008KT 26/20 A3006 RMK A01 T02550204  RH  073%=      5-min Rain = 0
KCO1 201314Z 12008KT 26/20 A3006 RMK A01 T02560204  RH  073%=      5-min Rain = 0
KCO1 201315Z 11007KT 26/20 A3007 RMK A01 T02560204  RH  073%=      5-min Rain = 0
KCO1 201316Z 12007KT 26/21 A3007 RMK A01 T02570205  RH  073%=      5-min Rain = 0
KCO1 201317Z 12008KT 26/21 A3007 RMK A01 T02570205  RH  073%=      5-min Rain = 0
KCO1 201318Z 12007KT 26/21 A3007 RMK A01 T02580205  RH  073%=      5-min Rain = 0
KCO1 201319Z 11008KT 26/21 A3007 RMK A01 T02580205  RH  073%=      5-min Rain = 0
KCO1 201320Z 12010KT 26/21 A3007 RMK A01 T02580205  RH  072%=      5-min Rain = 0
KCO1 201321Z 11008KT 26/21 A3007 RMK A01 T02580205  RH  073%=      5-min Rain = 0
KCO1 201322Z 12007KT 26/21 A3007 RMK A01 T02580205  RH  073%=      5-min Rain = 0
KCO1 201323Z 11009KT 26/21 A3007 RMK A01 T02590205  RH  072%=      5-min Rain = 0
KCO1 201324Z 12008KT 26/21 A3007 RMK A01 T02590205  RH  072%=      5-min Rain = 0
KCO1 201325Z 11009KT 26/21 A3007 RMK A01 T02590206  RH  072%=      5-min Rain = 0
KCO1 201326Z 12009KT 26/21 A3007 RMK A01 T02600206  RH  072%=      5-min Rain = 0
KCO1 201327Z 11008KT 26/21 A3007 RMK A01 T02600206  RH  072%=      5-min Rain = 0
KCO1 201328Z 12007KT 26/21 A3007 RMK A01 T02600206  RH  072%=      5-min Rain = 0
KCO1 201329Z 12007KT 26/21 A3007 RMK A01 T02610206  RH  072%=      5-min Rain = 0
KCO1 201330Z 11008KT 26/21 A3007 RMK A01 T02610206  RH  072%=      5-min Rain = 0
KCO1 201331Z 12008KT 26/21 A3007 RMK A01 T02610206  RH  072%=      5-min Rain = 0
KCO1 201332Z 12008KT 26/21 A3007 RMK A01 T02620206  RH  072%=      5-min Rain = 0
KCO1 201333Z 12009KT 26/21 A3007 RMK A01 T02620206  RH  072%=      5-min Rain = 0
KCO1 201334Z 13007KT 26/21 A3007 RMK A01 T02620206  RH  071%=      5-min Rain = 0
KCO1 201335Z 13005KT 26/21 A3007 RMK A01 T02620207  RH  071%=      5-min Rain = 0
KCO1 201336Z 12007KT 26/21 A3007 RMK A01 T02640207  RH  071%=      5-min Rain = 0
KCO1 201337Z 12008KT 26/21 A3007 RMK A01 T02640207  RH  071%=      5-min Rain = 0
KCO1 201338Z 11009KT 26/21 A3007 RMK A01 T02640207  RH  071%=      5-min Rain = 0
KCO1 201339Z 13008KT 26/21 A3007 RMK A01 T02640207  RH  071%=      5-min Rain = 0
KCO1 201340Z 13008KT 26/21 A3007 RMK A01 T02640207  RH  071%=      5-min Rain = 0
KCO1 201341Z 13008KT 27/21 A3007 RMK A01 T02660208  RH  070%=      5-min Rain = 0
KCO1 201342Z 12009KT 27/21 A3007 RMK A01 T02660207  RH  070%=      5-min Rain = 0
KCO1 201343Z 12011KT 27/21 A3007 RMK A01 T02670208  RH  070%=      5-min Rain = 0
KCO1 201344Z 13009KT 27/21 A3007 RMK A01 T02660207  RH  070%=      5-min Rain = 0
KCO1 201345Z 13011KT 27/21 A3007 RMK A01 T02660207  RH  070%=      5-min Rain = 0
KCO1 201346Z 12011KT 27/21 A3007 RMK A01 T02660207  RH  070%=      5-min Rain = 0
KCO1 201347Z 13011KT 27/21 A3007 RMK A01 T02660207  RH  070%=      5-min Rain = 0
KCO1 201348Z 13011KT 27/21 A3007 RMK A01 T02660207  RH  070%=      5-min Rain = 0
KCO1 201349Z 12008KT 27/21 A3007 RMK A01 T02660208  RH  070%=      5-min Rain = 0
KCO1 201350Z 12009KT 27/21 A3007 RMK A01 T02670208  RH  070%=      5-min Rain = 0
KCO1 201351Z 13009KT 27/21 A3007 RMK A01 T02680208  RH  070%=      5-min Rain = 0
KCO1 201352Z 12010KT 27/21 A3007 RMK A01 T02690208  RH  069%=      5-min Rain = 0
KCO1 201353Z 13011KT 27/21 A3007 RMK A01 T02690208  RH  069%=      5-min Rain = 0
KCO1 201354Z 13011KT 27/21 A3007 RMK A01 T02690207  RH  069%=      5-min Rain = 0
KCO1 201355Z 13012KT 27/21 A3007 RMK A01 T02690207  RH  069%=      5-min Rain = 0
KCO1 201356Z 13011KT 27/21 A3007 RMK A01 T02680207  RH  069%=      5-min Rain = 0
KCO1 201357Z 14010KT 27/21 A3007 RMK A01 T02690207  RH  069%=      5-min Rain = 0
KCO1 201358Z 13006KT 27/21 A3007 RMK A01 T02690208  RH  069%=      5-min Rain = 0
KCO1 201359Z 14009KT 27/21 A3007 RMK A01 T02710209  RH  069%=      5-min Rain = 0
KCO1 201400Z 13009KT 27/21 A3007 RMK A01 T02720208  RH  068%=      5-min Rain = 0
KCO1 201401Z 14010KT 27/21 A3007 RMK A01 T02730207  RH  067%=      5-min Rain = 0
KCO1 201402Z 14011KT 27/21 A3007 RMK A01 T02730207  RH  067%=      5-min Rain = 0
KCO1 201403Z 14011KT 27/21 A3007 RMK A01 T02730207  RH  067%=      5-min Rain = 0
KCO1 201404Z 14010KT 27/21 A3007 RMK A01 T02730206  RH  067%=      5-min Rain = 0
KCO1 201405Z 14009KT 27/21 A3007 RMK A01 T02730206  RH  067%=      5-min Rain = 0
KCO1 201406Z 14010KT 27/21 A3007 RMK A01 T02730206  RH  067%=      5-min Rain = 0
KCO1 201407Z 14011KT 27/21 A3007 RMK A01 T02730206  RH  067%=      5-min Rain = 0
KCO1 201408Z 14010KT 27/21 A3007 RMK A01 T02730206  RH  067%=      5-min Rain = 0
KCO1 201409Z 14008KT 27/21 A3007 RMK A01 T02730205  RH  066%=      5-min Rain = 0
KCO1 201410Z 14009KT 28/21 A3007 RMK A01 T02750207  RH  066%=      5-min Rain = 0
KCO1 201411Z 13009KT 28/21 A3007 RMK A01 T02760206  RH  066%=      5-min Rain = 0
KCO1 201412Z 12010KT 28/21 A3007 RMK A01 T02760206  RH  065%=      5-min Rain = 0
KCO1 201413Z 13011KT 28/21 A3007 RMK A01 T02760206  RH  066%=      5-min Rain = 0
KCO1 201414Z 13010KT 28/21 A3007 RMK A01 T02760205  RH  065%=      5-min Rain = 0
KCO1 201415Z 13009KT 28/21 A3007 RMK A01 T02760205  RH  065%=      5-min Rain = 0
KCO1 201416Z 13011KT 28/21 A3007 RMK A01 T02760205  RH  065%=      5-min Rain = 0
KCO1 201417Z 13010KT 28/21 A3007 RMK A01 T02760205  RH  065%=      5-min Rain = 0
KCO1 201418Z 14010KT 28/21 A3007 RMK A01 T02760205  RH  065%=      5-min Rain = 0
KCO1 201419Z 13008KT 28/21 A3007 RMK A01 T02760206  RH  065%=      5-min Rain = 0
KCO1 201420Z 13008KT 28/21 A3007 RMK A01 T02770206  RH  065%=      5-min Rain = 0
KCO1 201421Z 13007G12KT 28/21 A3007 RMK A01 T02790207  RH  065%=      5-min Rain = 0
KCO1 201422Z 13010KT 28/21 A3008 RMK A01 T02820207  RH  064%=      5-min Rain = 0
KCO1 201423Z 13010KT 28/21 A3007 RMK A01 T02820205  RH  063%=      5-min Rain = 0
KCO1 201424Z 12010KT 28/20 A3007 RMK A01 T02810204  RH  063%=      5-min Rain = 0
KCO1 201425Z 13011KT 28/20 A3007 RMK A01 T02810204  RH  063%=      5-min Rain = 0
KCO1 201426Z 14012KT 28/20 A3007 RMK A01 T02810203  RH  063%=      5-min Rain = 0
KCO1 201427Z 14010KT 28/20 A3007 RMK A01 T02810203  RH  063%=      5-min Rain = 0
KCO1 201428Z 13011KT 28/20 A3007 RMK A01 T02810203  RH  063%=      5-min Rain = 0
KCO1 201429Z 14010KT 28/20 A3007 RMK A01 T02800203  RH  063%=      5-min Rain = 0
KCO1 201430Z 14010KT 28/20 A3007 RMK A01 T02810202  RH  063%=      5-min Rain = 0
KCO1 201431Z 13011KT 28/20 A3007 RMK A01 T02810203  RH  062%=      5-min Rain = 0
KCO1 201432Z 14011KT 28/20 A3007 RMK A01 T02820201  RH  062%=      5-min Rain = 0
KCO1 201433Z 14010KT 28/20 A3007 RMK A01 T02820201  RH  061%=      5-min Rain = 0
KCO1 201434Z 14009KT 28/20 A3007 RMK A01 T02830202  RH  061%=      5-min Rain = 0
KCO1 201435Z 13010KT 28/20 A3007 RMK A01 T02840202  RH  061%=      5-min Rain = 0
KCO1 201436Z 15010KT 29/20 A3007 RMK A01 T02850202  RH  061%=      5-min Rain = 0
KCO1 201437Z 15010KT 29/20 A3007 RMK A01 T02860201  RH  060%=      5-min Rain = 0
KCO1 201438Z 13010KT 29/20 A3007 RMK A01 T02860201  RH  060%=      5-min Rain = 0
KCO1 201439Z 13010KT 29/20 A3007 RMK A01 T02870201  RH  060%=      5-min Rain = 0
KCO1 201440Z 12010KT 29/20 A3007 RMK A01 T02870201  RH  060%=      5-min Rain = 0
KCO1 201441Z 14009KT 29/20 A3007 RMK A01 T02870202  RH  060%=      5-min Rain = 0
KCO1 201442Z 13009KT 29/20 A3007 RMK A01 T02870202  RH  060%=      5-min Rain = 0
KCO1 201443Z 13011KT 29/20 A3008 RMK A01 T02880202  RH  060%=      5-min Rain = 0
KCO1 201444Z 14009KT 29/20 A3008 RMK A01 T02880202  RH  060%=      5-min Rain = 0
KCO1 201445Z 14007KT 29/20 A3008 RMK A01 T02880202  RH  060%=      5-min Rain = 0
KCO1 201446Z 12010KT 29/20 A3008 RMK A01 T02900202  RH  059%=      5-min Rain = 0
KCO1 201447Z 13011KT 29/20 A3008 RMK A01 T02910201  RH  058%=      5-min Rain = 0
KCO1 201448Z 13011KT 29/20 A3007 RMK A01 T02910201  RH  058%=      5-min Rain = 0
KCO1 201449Z 14010KT 29/20 A3007 RMK A01 T02900200  RH  058%=      5-min Rain = 0
KCO1 201450Z 14010KT 29/20 A3007 RMK A01 T02900200  RH  058%=      5-min Rain = 0
KCO1 201451Z 14009KT 29/20 A3007 RMK A01 T02910201  RH  058%=      5-min Rain = 0
KCO1 201452Z 14009KT 29/20 A3007 RMK A01 T02910200  RH  058%=      5-min Rain = 0
KCO1 201453Z 13009KT 29/20 A3007 RMK A01 T02920201  RH  058%=      5-min Rain = 0
KCO1 201454Z 12011KT 29/20 A3007 RMK A01 T02920202  RH  058%=      5-min Rain = 0
KCO1 201455Z 13010KT 29/20 A3007 RMK A01 T02930201  RH  057%=      5-min Rain = 0
KCO1 201456Z 13010KT 29/20 A3007 RMK A01 T02940201  RH  057%=      5-min Rain = 0
KCO1 201457Z 14009KT 29/20 A3007 RMK A01 T02930200  RH  057%=      5-min Rain = 0
KCO1 201458Z 13008KT 29/20 A3007 RMK A01 T02920200  RH  058%=      5-min Rain = 0
KCO1 201459Z 13008KT 29/20 A3007 RMK A01 T02920202  RH  058%=      5-min Rain = 0
KCO1 201500Z 13010KT 29/20 A3007 RMK A01 T02930200  RH  057%=      5-min Rain = 0
KCO1 201501Z 12011KT 29/20 A3007 RMK A01 T02940199  RH  057%=      5-min Rain = 0
KCO1 201502Z 12009KT 29/20 A3007 RMK A01 T02940198  RH  056%=      5-min Rain = 0
KCO1 201503Z 12008KT 29/20 A3007 RMK A01 T02940199  RH  057%=      5-min Rain = 0
KCO1 201504Z 13010KT 30/20 A3007 RMK A01 T02950199  RH  056%=      5-min Rain = 0
KCO1 201505Z 14010KT 30/20 A3007 RMK A01 T02960199  RH  056%=      5-min Rain = 0
KCO1 201506Z 15010KT 30/20 A3007 RMK A01 T02970197  RH  055%=      5-min Rain = 0
KCO1 201507Z 15009KT 30/20 A3007 RMK A01 T02970198  RH  055%=      5-min Rain = 0
KCO1 201508Z 15009KT 30/20 A3007 RMK A01 T02970197  RH  055%=      5-min Rain = 0
KCO1 201509Z 13007KT 30/20 A3007 RMK A01 T02970199  RH  056%=      5-min Rain = 0
KCO1 201510Z 13008KT 30/20 A3007 RMK A01 T02980199  RH  055%=      5-min Rain = 0
KCO1 201511Z 13007KT 30/20 A3007 RMK A01 T02990199  RH  055%=      5-min Rain = 0
KCO1 201512Z 12008KT 30/20 A3007 RMK A01 T03000198  RH  054%=      5-min Rain = 0
KCO1 201513Z 12009KT 30/20 A3007 RMK A01 T03000199  RH  054%=      5-min Rain = 0
KCO1 201514Z 14009KT 30/20 A3007 RMK A01 T03000199  RH  055%=      5-min Rain = 0
KCO1 201515Z 13008KT 30/20 A3007 RMK A01 T03000199  RH  055%=      5-min Rain = 0
KCO1 201516Z 12008KT 30/20 A3007 RMK A01 T03000199  RH  055%=      5-min Rain = 0
KCO1 201517Z 13009KT 30/20 A3007 RMK A01 T03030199  RH  054%=      5-min Rain = 0
KCO1 201518Z 14011KT 30/20 A3007 RMK A01 T03040196  RH  052%=      5-min Rain = 0
KCO1 201519Z 15006KT 30/20 A3007 RMK A01 T03030197  RH  053%=      5-min Rain = 0
KCO1 201520Z 14009KT 30/20 A3007 RMK A01 T03030196  RH  053%=      5-min Rain = 0
KCO1 201521Z 12009KT 30/20 A3007 RMK A01 T03020197  RH  053%=      5-min Rain = 0
KCO1 201522Z 13008KT 30/20 A3007 RMK A01 T03020197  RH  054%=      5-min Rain = 0
KCO1 201523Z 13007KT 30/20 A3007 RMK A01 T03020197  RH  053%=      5-min Rain = 0
KCO1 201524Z 13006KT 30/20 A3007 RMK A01 T03030197  RH  053%=      5-min Rain = 0
KCO1 201525Z 12008KT 30/20 A3007 RMK A01 T03040198  RH  053%=      5-min Rain = 0
KCO1 201526Z 13007KT 31/20 A3007 RMK A01 T03060197  RH  052%=      5-min Rain = 0
KCO1 201527Z 12007KT 31/20 A3007 RMK A01 T03070197  RH  052%=      5-min Rain = 0
KCO1 201528Z 11007KT 31/20 A3007 RMK A01 T03080196  RH  051%=      5-min Rain = 0
KCO1 201529Z 14010KT 31/20 A3007 RMK A01 T03070196  RH  051%=      5-min Rain = 0
KCO1 201530Z 13008KT 31/20 A3007 RMK A01 T03080195  RH  051%=      5-min Rain = 0
KCO1 201531Z 12009KT 31/20 A3007 RMK A01 T03090195  RH  051%=      5-min Rain = 0
KCO1 201532Z 12007KT 31/20 A3007 RMK A01 T03100195  RH  050%=      5-min Rain = 0
KCO1 201533Z 12008KT 31/19 A3007 RMK A01 T03090194  RH  050%=      5-min Rain = 0
KCO1 201534Z 13008KT 31/19 A3007 RMK A01 T03080194  RH  051%=      5-min Rain = 0
KCO1 201535Z 12006KT 31/20 A3007 RMK A01 T03080195  RH  051%=      5-min Rain = 0
KCO1 201536Z 13008KT 31/20 A3007 RMK A01 T03110197  RH  050%=      5-min Rain = 0
KCO1 201537Z 13009KT 31/20 A3007 RMK A01 T03140195  RH  049%=      5-min Rain = 0
KCO1 201538Z 13007KT 31/19 A3007 RMK A01 T03110194  RH  050%=      5-min Rain = 0
KCO1 201539Z 12009KT 31/20 A3007 RMK A01 T03110195  RH  050%=      5-min Rain = 0
KCO1 201540Z 12008KT 31/20 A3007 RMK A01 T03120195  RH  050%=      5-min Rain = 0
KCO1 201541Z 12008KT 31/20 A3007 RMK A01 T03120196  RH  050%=      5-min Rain = 0
KCO1 201542Z 13011KT 31/20 A3007 RMK A01 T03130196  RH  050%=      5-min Rain = 0
KCO1 201543Z 14007KT 31/20 A3007 RMK A01 T03130195  RH  049%=      5-min Rain = 0
KCO1 201544Z 13007G13KT 31/20 A3007 RMK A01 T03140195  RH  049%=      5-min Rain = 0
KCO1 201545Z 12011KT 32/19 A3007 RMK A01 T03150193  RH  048%=      5-min Rain = 0
KCO1 201546Z 14010KT 32/19 A3007 RMK A01 T03150190  RH  048%=      5-min Rain = 0
KCO1 201547Z 15009KT 32/19 A3007 RMK A01 T03160190  RH  047%=      5-min Rain = 0
KCO1 201548Z 12009KT 32/19 A3007 RMK A01 T03160192  RH  048%=      5-min Rain = 0
KCO1 201549Z 11010KT 32/19 A3007 RMK A01 T03150193  RH  048%=      5-min Rain = 0
KCO1 201550Z 12009KT 32/19 A3007 RMK A01 T03160194  RH  048%=      5-min Rain = 0
KCO1 201551Z 12008KT 32/19 A3007 RMK A01 T03170193  RH  048%=      5-min Rain = 0
KCO1 201552Z 12010KT 32/19 A3007 RMK A01 T03170192  RH  048%=      5-min Rain = 0
KCO1 201553Z 11012KT 32/19 A3007 RMK A01 T03170190  RH  047%=      5-min Rain = 0
KCO1 201554Z 12009KT 32/19 A3007 RMK A01 T03170189  RH  047%=      5-min Rain = 0
KCO1 201555Z 12011KT 32/19 A3007 RMK A01 T03190191  RH  047%=      5-min Rain = 0
KCO1 201556Z 12011KT 32/19 A3007 RMK A01 T03200191  RH  046%=      5-min Rain = 0
KCO1 201557Z 14012KT 32/19 A3007 RMK A01 T03200189  RH  046%=      5-min Rain = 0
KCO1 201558Z 14013KT 32/19 A3007 RMK A01 T03200187  RH  045%=      5-min Rain = 0
KCO1 201559Z 12010KT 32/19 A3007 RMK A01 T03200188  RH  046%=      5-min Rain = 0
KCO1 201600Z 12011KT 32/19 A3007 RMK A01 T03190190  RH  046%=      5-min Rain = 0
KCO1 201601Z 12009KT 32/19 A3007 RMK A01 T03210191  RH  046%=      5-min Rain = 0
KCO1 201602Z 13010KT 32/19 A3007 RMK A01 T03240191  RH  045%=      5-min Rain = 0
KCO1 201603Z 13011KT 33/19 A3007 RMK A01 T03260188  RH  044%=      5-min Rain = 0
KCO1 201604Z 12007KT 33/19 A3007 RMK A01 T03250187  RH  044%=      5-min Rain = 0
KCO1 201605Z 13011KT 32/19 A3007 RMK A01 T03240188  RH  044%=      5-min Rain = 0
KCO1 201606Z 13009KT 32/19 A3007 RMK A01 T03220188  RH  045%=      5-min Rain = 0
KCO1 201607Z 13011KT 32/19 A3007 RMK A01 T03220189  RH  046%=      5-min Rain = 0
KCO1 201608Z 11009KT 32/19 A3007 RMK A01 T03200188  RH  046%=      5-min Rain = 0
KCO1 201609Z 11009KT 32/19 A3007 RMK A01 T03190188  RH  046%=      5-min Rain = 0
KCO1 201610Z 12010KT 32/19 A3007 RMK A01 T03210189  RH  046%=      5-min Rain = 0
KCO1 201611Z 14011KT 33/19 A3007 RMK A01 T03250188  RH  044%=      5-min Rain = 0
KCO1 201612Z 12010KT 33/19 A3007 RMK A01 T03260186  RH  043%=      5-min Rain = 0
KCO1 201613Z 14010KT 33/19 A3007 RMK A01 T03280186  RH  043%=      5-min Rain = 0
KCO1 201614Z 14009KT 33/18 A3007 RMK A01 T03290184  RH  042%=      5-min Rain = 0
KCO1 201615Z 11008KT 33/19 A3007 RMK A01 T03290188  RH  043%=      5-min Rain = 0
KCO1 201616Z 11008KT 33/19 A3007 RMK A01 T03290189  RH  044%=      5-min Rain = 0
KCO1 201617Z 11011KT 33/19 A3007 RMK A01 T03290188  RH  043%=      5-min Rain = 0
KCO1 201618Z 13009KT 33/19 A3007 RMK A01 T03290186  RH  043%=      5-min Rain = 0
KCO1 201619Z 15009KT 33/19 A3007 RMK A01 T03280185  RH  043%=      5-min Rain = 0
KCO1 201620Z 12010KT 33/19 A3007 RMK A01 T03290186  RH  043%=      5-min Rain = 0
KCO1 201621Z 14010KT 33/19 A3007 RMK A01 T03310187  RH  042%=      5-min Rain = 0
KCO1 201622Z 14010KT 33/18 A3007 RMK A01 T03330183  RH  041%=      5-min Rain = 0
KCO1 201623Z 13009KT 33/18 A3007 RMK A01 T03340184  RH  041%=      5-min Rain = 0
KCO1 201624Z 12009KT 34/19 A3007 RMK A01 T03360187  RH  041%=      5-min Rain = 0
KCO1 201625Z 12011G17KT 34/19 A3007 RMK A01 T03370187  RH  041%=      5-min Rain = 0
KCO1 201626Z 13011KT 34/19 A3007 RMK A01 T03370186  RH  041%=      5-min Rain = 0
KCO1 201627Z 13011KT 33/19 A3007 RMK A01 T03340185  RH  041%=      5-min Rain = 0
KCO1 201628Z 12010KT 33/19 A3007 RMK A01 T03330185  RH  042%=      5-min Rain = 0
KCO1 201629Z 12009KT 33/19 A3007 RMK A01 T03310185  RH  042%=      5-min Rain = 0
KCO1 201630Z 14012KT 33/19 A3007 RMK A01 T03330185  RH  042%=      5-min Rain = 0
KCO1 201631Z 13011KT 34/18 A3007 RMK A01 T03350182  RH  040%=      5-min Rain = 0
KCO1 201632Z 13012KT 34/18 A3007 RMK A01 T03350182  RH  040%=      5-min Rain = 0
KCO1 201633Z 12009KT 34/18 A3007 RMK A01 T03350183  RH  041%=      5-min Rain = 0
KCO1 201634Z 14009KT 33/18 A3007 RMK A01 T03340184  RH  041%=      5-min Rain = 0
KCO1 201635Z 11011G16KT 33/18 A3007 RMK A01 T03330184  RH  041%=      5-min Rain = 0
KCO1 201636Z 10012KT 33/18 A3007 RMK A01 T03340183  RH  041%=      5-min Rain = 0
KCO1 201637Z 11011KT 34/18 A3007 RMK A01 T03350182  RH  040%=      5-min Rain = 0
KCO1 201638Z 12013KT 34/18 A3007 RMK A01 T03360182  RH  040%=      5-min Rain = 0
KCO1 201639Z 12010KT 34/18 A3007 RMK A01 T03360182  RH  040%=      5-min Rain = 0
KCO1 201640Z 13012KT 34/18 A3007 RMK A01 T03370184  RH  040%=      5-min Rain = 0
KCO1 201641Z 13009KT 34/18 A3006 RMK A01 T03350183  RH  041%=      5-min Rain = 0
KCO1 201642Z 13009KT 33/18 A3006 RMK A01 T03330184  RH  041%=      5-min Rain = 0
KCO1 201643Z 13011KT 34/18 A3006 RMK A01 T03360181  RH  040%=      5-min Rain = 0
KCO1 201644Z 14009KT 34/18 A3006 RMK A01 T03360179  RH  039%=      5-min Rain = 0
KCO1 201645Z 12009KT 34/18 A3006 RMK A01 T03370182  RH  040%=      5-min Rain = 0
KCO1 201646Z 13012KT 34/18 A3006 RMK A01 T03380182  RH  040%=      5-min Rain = 0
KCO1 201647Z 14011KT 34/18 A3006 RMK A01 T03360181  RH  040%=      5-min Rain = 0
KCO1 201648Z 12009KT 34/18 A3006 RMK A01 T03350180  RH  040%=      5-min Rain = 0
KCO1 201649Z 12011KT 34/18 A3006 RMK A01 T03360182  RH  040%=      5-min Rain = 0
KCO1 201650Z 11010KT 34/18 A3006 RMK A01 T03360182  RH  040%=      5-min Rain = 0
KCO1 201651Z 12013KT 34/18 A3006 RMK A01 T03360180  RH  040%=      5-min Rain = 0
KCO1 201652Z 12012KT 34/18 A3006 RMK A01 T03360180  RH  040%=      5-min Rain = 0
KCO1 201653Z 12012KT 34/18 A3006 RMK A01 T03380178  RH  039%=      5-min Rain = 0
KCO1 201654Z 13012KT 34/18 A3006 RMK A01 T03390175  RH  038%=      5-min Rain = 0
KCO1 201655Z 13011KT 34/18 A3006 RMK A01 T03380176  RH  038%=      5-min Rain = 0
KCO1 201656Z 12009KT 34/18 A3006 RMK A01 T03380177  RH  038%=      5-min Rain = 0
KCO1 201657Z 11010KT 34/18 A3006 RMK A01 T03370176  RH  038%=      5-min Rain = 0
KCO1 201658Z 12010KT 34/18 A3006 RMK A01 T03370175  RH  038%=      5-min Rain = 0
KCO1 201659Z 14010KT 34/17 A3006 RMK A01 T03390173  RH  037%=      5-min Rain = 0
KCO1 201700Z 12013KT 34/18 A3006 RMK A01 T03390176  RH  038%=      5-min Rain = 0
KCO1 201701Z 11011KT 34/18 A3006 RMK A01 T03400175  RH  037%=      5-min Rain = 0
KCO1 201702Z 12012KT 34/18 A3006 RMK A01 T03400175  RH  038%=      5-min Rain = 0
KCO1 201703Z 12010KT 34/17 A3006 RMK A01 T03400173  RH  037%=      5-min Rain = 0
KCO1 201704Z 11011KT 34/17 A3006 RMK A01 T03410170  RH  036%=      5-min Rain = 0
KCO1 201705Z 13009KT 34/17 A3006 RMK A01 T03420167  RH  035%=      5-min Rain = 0
KCO1 201706Z 13013KT 34/17 A3006 RMK A01 T03420167  RH  035%=      5-min Rain = 0
KCO1 201707Z 13012KT 34/17 A3006 RMK A01 T03410165  RH  035%=      5-min Rain = 0
KCO1 201708Z 14011KT 34/17 A3006 RMK A01 T03410165  RH  035%=      5-min Rain = 0
KCO1 201709Z 14011KT 34/16 A3006 RMK A01 T03410155  RH  033%=      5-min Rain = 0
KCO1 201710Z 14011KT 34/15 A3006 RMK A01 T03410153  RH  032%=      5-min Rain = 0
KCO1 201711Z 13008KT 34/16 A3006 RMK A01 T03420159  RH  034%=      5-min Rain = 0
KCO1 201712Z 15008KT 34/16 A3006 RMK A01 T03440157  RH  033%=      5-min Rain = 0
KCO1 201713Z 13011KT 35/16 A3006 RMK A01 T03470155  RH  032%=      5-min Rain = 0
KCO1 201714Z 12011KT 35/16 A3006 RMK A01 T03490158  RH  032%=      5-min Rain = 0
KCO1 201715Z 12011KT 35/16 A3006 RMK A01 T03490159  RH  032%=      5-min Rain = 0
KCO1 201716Z 13008KT 35/16 A3006 RMK A01 T03500162  RH  033%=      5-min Rain = 0
KCO1 201717Z 13009KT 35/17 A3006 RMK A01 T03530165  RH  033%=      5-min Rain = 0
KCO1 201718Z 12009KT 35/17 A3006 RMK A01 T03500168  RH  034%=      5-min Rain = 0
KCO1 201719Z 14014KT 35/16 A3006 RMK A01 T03490157  RH  032%=      5-min Rain = 0
KCO1 201720Z 14010KT 35/15 A3006 RMK A01 T03500153  RH  031%=      5-min Rain = 0
KCO1 201721Z 13009KT 35/15 A3006 RMK A01 T03490152  RH  031%=      5-min Rain = 0
KCO1 201722Z 12013KT 35/15 A3006 RMK A01 T03480149  RH  030%=      5-min Rain = 0
KCO1 201723Z 12013KT 35/15 A3006 RMK A01 T03500146  RH  030%=      5-min Rain = 0
KCO1 201724Z 10011KT 35/15 A3006 RMK A01 T03500147  RH  030%=      5-min Rain = 0
KCO1 201725Z 12011KT 35/15 A3006 RMK A01 T03490150  RH  030%=      5-min Rain = 0
KCO1 201726Z 11011KT 35/15 A3006 RMK A01 T03490148  RH  030%=      5-min Rain = 0
KCO1 201727Z 12011KT 35/16 A3006 RMK A01 T03510160  RH  032%=      5-min Rain = 0
KCO1 201728Z 11014KT 35/16 A3006 RMK A01 T03500162  RH  033%=      5-min Rain = 0
KCO1 201729Z 12011KT 35/16 A3006 RMK A01 T03500164  RH  033%=      5-min Rain = 0
KCO1 201730Z 10010KT 35/17 A3006 RMK A01 T03510165  RH  033%=      5-min Rain = 0
KCO1 201731Z 12012G19KT 35/16 A3006 RMK A01 T03500164  RH  033%=      5-min Rain = 0
KCO1 201732Z 12012KT 35/17 A3006 RMK A01 T03500165  RH  033%=      5-min Rain = 0
KCO1 201733Z 12014KT 35/16 A3006 RMK A01 T03520161  RH  032%=      5-min Rain = 0
KCO1 201734Z 13014KT 35/16 A3006 RMK A01 T03500160  RH  032%=      5-min Rain = 0
KCO1 201735Z 13011KT 35/16 A3006 RMK A01 T03490156  RH  032%=      5-min Rain = 0
KCO1 201736Z 14010KT 35/16 A3006 RMK A01 T03490155  RH  031%=      5-min Rain = 0
KCO1 201737Z 15011KT 35/16 A3006 RMK A01 T03510155  RH  031%=      5-min Rain = 0
KCO1 201738Z 14010KT 35/16 A3006 RMK A01 T03510162  RH  033%=      5-min Rain = 0
KCO1 201739Z 11011KT 35/17 A3006 RMK A01 T03510165  RH  033%=      5-min Rain = 0
KCO1 201740Z 12014KT 35/17 A3006 RMK A01 T03520166  RH  033%=      5-min Rain = 0
KCO1 201741Z 11011KT 35/17 A3006 RMK A01 T03510166  RH  033%=      5-min Rain = 0
KCO1 201742Z 10014KT 35/16 A3006 RMK A01 T03500163  RH  033%=      5-min Rain = 0
KCO1 201743Z 11012G18KT 35/16 A3006 RMK A01 T03490163  RH  033%=      5-min Rain = 0
KCO1 201744Z 12011KT 35/16 A3006 RMK A01 T03500164  RH  033%=      5-min Rain = 0
KCO1 201745Z 11009KT 35/17 A3006 RMK A01 T03480165  RH  034%=      5-min Rain = 0
KCO1 201746Z 10009KT 35/17 A3006 RMK A01 T03470166  RH  034%=      5-min Rain = 0
KCO1 201747Z 11012KT 35/16 A3006 RMK A01 T03460164  RH  034%=      5-min Rain = 0
KCO1 201748Z 13013KT 35/16 A3006 RMK A01 T03480162  RH  033%=      5-min Rain = 0
KCO1 201749Z 13015KT 35/17 A3006 RMK A01 T03490165  RH  034%=      5-min Rain = 0
KCO1 201750Z 13011KT 35/17 A3006 RMK A01 T03520166  RH  033%=      5-min Rain = 0
KCO1 201751Z 13008KT 35/17 A3006 RMK A01 T03540167  RH  033%=      5-min Rain = 0
KCO1 201752Z 12011KT 36/17 A3006 RMK A01 T03550168  RH  033%=      5-min Rain = 0
KCO1 201753Z 12010KT 36/17 A3006 RMK A01 T03550168  RH  033%=      5-min Rain = 0
KCO1 201754Z 13007KT 35/17 A3006 RMK A01 T03510169  RH  034%=      5-min Rain = 0
KCO1 201755Z 12010G15KT 35/17 A3006 RMK A01 T03510172  RH  035%=      5-min Rain = 0
KCO1 201756Z 11012KT 35/17 A3006 RMK A01 T03540172  RH  034%=      5-min Rain = 0
KCO1 201757Z 12012KT 35/17 A3006 RMK A01 T03530172  RH  034%=      5-min Rain = 0
KCO1 201758Z 12014KT 36/17 A3006 RMK A01 T03550169  RH  033%=      5-min Rain = 0
KCO1 201759Z 11011KT 35/17 A3006 RMK A01 T03540169  RH  033%=      5-min Rain = 0
KCO1 201800Z 11012KT 35/17 A3006 RMK A01 T03540171  RH  034%=      5-min Rain = 0
KCO1 201801Z 11011KT 35/18 A3006 RMK A01 T03520176  RH  035%=      5-min Rain = 0
KCO1 201802Z 12012KT 35/18 A3006 RMK A01 T03520176  RH  035%=      5-min Rain = 0
KCO1 201803Z 12012KT 35/18 A3006 RMK A01 T03510176  RH  036%=      5-min Rain = 0
KCO1 201804Z 12013KT 35/17 A3006 RMK A01 T03500174  RH  035%=      5-min Rain = 0
KCO1 201805Z 11012KT 35/17 A3006 RMK A01 T03510172  RH  035%=      5-min Rain = 0
KCO1 201806Z 11010KT 35/17 A3006 RMK A01 T03510172  RH  035%=      5-min Rain = 0
KCO1 201807Z 11011G16KT 35/17 A3006 RMK A01 T03510172  RH  035%=      5-min Rain = 0
KCO1 201808Z 11013KT 35/17 A3006 RMK A01 T03520172  RH  034%=      5-min Rain = 0
KCO1 201809Z 14010G16KT 36/17 A3006 RMK A01 T03570169  RH  033%=      5-min Rain = 0
KCO1 201810Z 14012KT 36/17 A3006 RMK A01 T03600165  RH  032%=      5-min Rain = 0
KCO1 201811Z 14009KT 36/17 A3005 RMK A01 T03600166  RH  032%=      5-min Rain = 0
KCO1 201812Z 13010G15KT 36/17 A3005 RMK A01 T03590168  RH  032%=      5-min Rain = 0
KCO1 201813Z 13013KT 36/17 A3006 RMK A01 T03590172  RH  033%=      5-min Rain = 0
KCO1 201814Z 14012KT 36/17 A3005 RMK A01 T03550172  RH  034%=      5-min Rain = 0
KCO1 201815Z 13011KT 35/17 A3005 RMK A01 T03530172  RH  034%=      5-min Rain = 0
KCO1 201816Z 12009KT 35/18 A3005 RMK A01 T03530175  RH  035%=      5-min Rain = 0
KCO1 201817Z 11010KT 35/17 A3005 RMK A01 T03520174  RH  035%=      5-min Rain = 0
KCO1 201818Z 12014KT 35/17 A3005 RMK A01 T03520174  RH  035%=      5-min Rain = 0
KCO1 201819Z 12010G15KT 35/17 A3005 RMK A01 T03530174  RH  035%=      5-min Rain = 0
KCO1 201820Z 13011KT 36/18 A3005 RMK A01 T03590175  RH  034%=      5-min Rain = 0
KCO1 201821Z 14013KT 36/17 A3005 RMK A01 T03620170  RH  032%=      5-min Rain = 0
KCO1 201822Z 13013KT 36/17 A3005 RMK A01 T03610166  RH  031%=      5-min Rain = 0
KCO1 201823Z 13013KT 36/16 A3005 RMK A01 T03610163  RH  031%=      5-min Rain = 0
KCO1 201824Z 12011G16KT 36/16 A3005 RMK A01 T03590164  RH  031%=      5-min Rain = 0
KCO1 201825Z 13013KT 36/17 A3005 RMK A01 T03590166  RH  032%=      5-min Rain = 0
KCO1 201826Z 12008KT 36/17 A3005 RMK A01 T03580168  RH  033%=      5-min Rain = 0
KCO1 201827Z 12007KT 36/17 A3005 RMK A01 T03560170  RH  033%=      5-min Rain = 0
KCO1 201828Z 12011KT 36/17 A3005 RMK A01 T03580170  RH  033%=      5-min Rain = 0
KCO1 201829Z 11009KT 36/17 A3005 RMK A01 T03570171  RH  033%=      5-min Rain = 0
KCO1 201830Z 09010KT 36/17 A3005 RMK A01 T03590171  RH  033%=      5-min Rain = 0
KCO1 201831Z 10011G16KT 36/17 A3005 RMK A01 T03570171  RH  033%=      5-min Rain = 0
KCO1 201832Z 11013KT 36/17 A3005 RMK A01 T03570172  RH  034%=      5-min Rain = 0
KCO1 201833Z 10010KT 36/17 A3005 RMK A01 T03560173  RH  034%=      5-min Rain = 0
KCO1 201834Z 11007KT 36/17 A3005 RMK A01 T03560174  RH  034%=      5-min Rain = 0
KCO1 201835Z 11007KT 36/18 A3005 RMK A01 T03590175  RH  034%=      5-min Rain = 0
KCO1 201836Z 11012KT 36/17 A3005 RMK A01 T03610173  RH  033%=      5-min Rain = 0
KCO1 201837Z 11010KT 36/17 A3005 RMK A01 T03600171  RH  033%=      5-min Rain = 0
KCO1 201838Z 12016KT 36/17 A3004 RMK A01 T03610168  RH  032%=      5-min Rain = 0
KCO1 201839Z 13016KT 36/16 A3004 RMK A01 T03630164  RH  031%=      5-min Rain = 0
KCO1 201840Z 13014KT 36/16 A3005 RMK A01 T03620163  RH  031%=      5-min Rain = 0
KCO1 201841Z 14015KT 36/16 A3005 RMK A01 T03590162  RH  031%=      5-min Rain = 0
KCO1 201842Z 14011KT 36/16 A3005 RMK A01 T03590157  RH  030%=      5-min Rain = 0
KCO1 201843Z 16011KT 36/16 A3004 RMK A01 T03600158  RH  030%=      5-min Rain = 0
KCO1 201844Z 14009KT 36/16 A3005 RMK A01 T03600161  RH  031%=      5-min Rain = 0
KCO1 201845Z 13007KT 36/16 A3005 RMK A01 T03610162  RH  031%=      5-min Rain = 0
KCO1 201846Z 10009KT 36/17 A3005 RMK A01 T03620170  RH  032%=      5-min Rain = 0
KCO1 201847Z 11009G14KT 37/17 A3005 RMK A01 T03650172  RH  032%=      5-min Rain = 0
KCO1 201848Z 12006KT 37/17 A3004 RMK A01 T03680174  RH  032%=      5-min Rain = 0
KCO1 201849Z 13007KT 37/17 A3004 RMK A01 T03680172  RH  032%=      5-min Rain = 0
KCO1 201850Z 12005G11KT 37/17 A3004 RMK A01 T03650174  RH  033%=      5-min Rain = 0
KCO1 201851Z 11015KT 37/17 A3004 RMK A01 T03670169  RH  031%=      5-min Rain = 0
KCO1 201852Z 12009KT 37/17 A3004 RMK A01 T03650165  RH  031%=      5-min Rain = 0
KCO1 201853Z 12007KT 36/17 A3004 RMK A01 T03640166  RH  031%=      5-min Rain = 0
KCO1 201854Z 11007KT 36/17 A3004 RMK A01 T03630166  RH  031%=      5-min Rain = 0
KCO1 201855Z 10012G17KT 36/17 A3004 RMK A01 T03620167  RH  032%=      5-min Rain = 0
KCO1 201856Z 12014KT 36/16 A3004 RMK A01 T03630164  RH  031%=      5-min Rain = 0
KCO1 201857Z 11010KT 36/16 A3004 RMK A01 T03640162  RH  030%=      5-min Rain = 0
KCO1 201858Z 11012KT 36/16 A3004 RMK A01 T03640160  RH  030%=      5-min Rain = 0
KCO1 201859Z 10014KT 36/16 A3004 RMK A01 T03640159  RH  030%=      5-min Rain = 0
KCO1 201900Z 10017KT 36/16 A3004 RMK A01 T03610157  RH  030%=      5-min Rain = 0
KCO1 201901Z 11015KT 36/16 A3004 RMK A01 T03610157  RH  030%=      5-min Rain = 0
KCO1 201902Z 09014KT 36/16 A3004 RMK A01 T03620158  RH  030%=      5-min Rain = 0
KCO1 201903Z 11010KT 36/16 A3004 RMK A01 T03630160  RH  030%=      5-min Rain = 0
KCO1 201904Z 12009KT 37/16 A3004 RMK A01 T03650160  RH  030%=      5-min Rain = 0
KCO1 201905Z 12010KT 36/16 A3004 RMK A01 T03640161  RH  030%=      5-min Rain = 0
KCO1 201906Z 14012KT 36/16 A3004 RMK A01 T03640159  RH  030%=      5-min Rain = 0
KCO1 201907Z 14011KT 37/16 A3004 RMK A01 T03650158  RH  029%=      5-min Rain = 0
KCO1 201908Z 13009KT 37/16 A3004 RMK A01 T03660160  RH  030%=      5-min Rain = 0
KCO1 201909Z 11015KT 37/16 A3004 RMK A01 T03700161  RH  029%=      5-min Rain = 0
KCO1 201910Z 11016KT 37/16 A3004 RMK A01 T03700156  RH  028%=      5-min Rain = 0
KCO1 201911Z 12014KT 37/15 A3004 RMK A01 T03660153  RH  028%=      5-min Rain = 0
KCO1 201912Z 11013KT 36/15 A3004 RMK A01 T03640153  RH  029%=      5-min Rain = 0
KCO1 201913Z 09012KT 36/15 A3004 RMK A01 T03640153  RH  029%=      5-min Rain = 0
KCO1 201914Z 09013KT 37/15 A3004 RMK A01 T03680151  RH  028%=      5-min Rain = 0
KCO1 201915Z 08011KT 37/15 A3004 RMK A01 T03690151  RH  028%=      5-min Rain = 0
KCO1 201916Z 08008KT 37/15 A3004 RMK A01 T03690153  RH  028%=      5-min Rain = 0
KCO1 201917Z 11012G19KT 37/15 A3004 RMK A01 T03680153  RH  028%=      5-min Rain = 0
KCO1 201918Z 12015KT 37/15 A3004 RMK A01 T03680151  RH  028%=      5-min Rain = 0
KCO1 201919Z 12014KT 37/15 A3004 RMK A01 T03670152  RH  028%=      5-min Rain = 0
KCO1 201920Z 13012KT 37/16 A3004 RMK A01 T03660155  RH  029%=      5-min Rain = 0
KCO1 201921Z 12011G16KT 37/15 A3004 RMK A01 T03660154  RH  028%=      5-min Rain = 0
KCO1 201922Z 12014KT 36/15 A3004 RMK A01 T03640154  RH  029%=      5-min Rain = 0
KCO1 201923Z 12011KT 36/15 A3004 RMK A01 T03640154  RH  029%=      5-min Rain = 0
KCO1 201924Z 12012KT 37/15 A3004 RMK A01 T03670151  RH  028%=      5-min Rain = 0
KCO1 201925Z 12009G14KT 37/15 A3004 RMK A01 T03680150  RH  028%=      5-min Rain = 0
KCO1 201926Z 10011KT 37/15 A3004 RMK A01 T03680151  RH  028%=      5-min Rain = 0
KCO1 201927Z 09008KT 37/15 A3004 RMK A01 T03680151  RH  028%=      5-min Rain = 0
KCO1 201928Z 09010KT 37/15 A3004 RMK A01 T03670150  RH  028%=      5-min Rain = 0
KCO1 201929Z 12015G20KT 37/15 A3003 RMK A01 T03670146  RH  027%=      5-min Rain = 0
KCO1 201930Z 13015KT 37/14 A3003 RMK A01 T03690142  RH  026%=      5-min Rain = 0
KCO1 201931Z 13014KT 37/14 A3004 RMK A01 T03700140  RH  025%=      5-min Rain = 0
KCO1 201932Z 13014KT 37/14 A3003 RMK A01 T03680138  RH  025%=      5-min Rain = 0
KCO1 201933Z 11012KT 37/14 A3004 RMK A01 T03690139  RH  026%=      5-min Rain = 0
KCO1 201934Z 11013KT 37/14 A3003 RMK A01 T03670141  RH  026%=      5-min Rain = 0
KCO1 201935Z 11010KT 37/14 A3003 RMK A01 T03670139  RH  026%=      5-min Rain = 0
KCO1 201936Z 11007KT 37/14 A3003 RMK A01 T03680143  RH  026%=      5-min Rain = 0
KCO1 201937Z 11008G14KT 37/15 A3003 RMK A01 T03690147  RH  027%=      5-min Rain = 0
KCO1 201938Z 13009KT 37/15 A3003 RMK A01 T03710152  RH  027%=      5-min Rain = 0
KCO1 201939Z 13010G16KT 37/15 A3003 RMK A01 T03710152  RH  027%=      5-min Rain = 0
KCO1 201940Z 10013KT 37/16 A3003 RMK A01 T03720155  RH  028%=      5-min Rain = 0
KCO1 201941Z 10016G21KT 37/15 A3003 RMK A01 T03710153  RH  027%=      5-min Rain = 0
KCO1 201942Z 10019KT 37/15 A3003 RMK A01 T03710153  RH  028%=      5-min Rain = 0
KCO1 201943Z 11018KT 37/15 A3003 RMK A01 T03690152  RH  028%=      5-min Rain = 0
KCO1 201944Z 12012G17KT 37/15 A3003 RMK A01 T03690152  RH  028%=      5-min Rain = 0
KCO1 201945Z 12011KT 37/15 A3003 RMK A01 T03680152  RH  028%=      5-min Rain = 0
KCO1 201946Z 09006KT 37/15 A3003 RMK A01 T03680151  RH  028%=      5-min Rain = 0
KCO1 201947Z 10011KT 37/15 A3003 RMK A01 T03680152  RH  028%=      5-min Rain = 0
KCO1 201948Z 09011G18KT 37/15 A3003 RMK A01 T03690148  RH  027%=      5-min Rain = 0
KCO1 201949Z 11018KT 37/15 A3003 RMK A01 T03690151  RH  027%=      5-min Rain = 0
KCO1 201950Z 11013KT 37/15 A3003 RMK A01 T03680152  RH  028%=      5-min Rain = 0
KCO1 201951Z 12012KT 37/15 A3003 RMK A01 T03690153  RH  028%=      5-min Rain = 0
KCO1 201952Z 12011KT 37/15 A3003 RMK A01 T03710152  RH  027%=      5-min Rain = 0
KCO1 201953Z 12015KT 37/15 A3003 RMK A01 T03710153  RH  027%=      5-min Rain = 0
KCO1 201954Z 12014KT 37/15 A3003 RMK A01 T03700152  RH  028%=      5-min Rain = 0
KCO1 201955Z 12014KT 37/15 A3003 RMK A01 T03680152  RH  028%=      5-min Rain = 0
KCO1 201956Z 12011KT 37/15 A3003 RMK A01 T03690152  RH  028%=      5-min Rain = 0
KCO1 201957Z 11010KT 37/16 A3003 RMK A01 T03720155  RH  028%=      5-min Rain = 0
KCO1 201958Z 11011KT 37/15 A3003 RMK A01 T03740154  RH  027%=      5-min Rain = 0
KCO1 201959Z 09011KT 38/15 A3003 RMK A01 T03750152  RH  027%=      5-min Rain = 0
KCO1 202000Z 10014G20KT 38/15 A3003 RMK A01 T03760152  RH  027%=      5-min Rain = 0
KCO1 202001Z 13016G22KT 38/15 A3002 RMK A01 T03770148  RH  026%=      5-min Rain = 0
KCO1 202002Z 12010KT 38/15 A3003 RMK A01 T03770147  RH  026%=      5-min Rain = 0
KCO1 202003Z 14012KT 38/15 A3003 RMK A01 T03770148  RH  026%=      5-min Rain = 0
KCO1 202004Z 14016KT 38/14 A3002 RMK A01 T03800144  RH  025%=      5-min Rain = 0
KCO1 202005Z 14014KT 38/14 A3002 RMK A01 T03770143  RH  025%=      5-min Rain = 0
KCO1 202006Z 13012G17KT 37/15 A3002 RMK A01 T03730147  RH  026%=      5-min Rain = 0
KCO1 202007Z 11015KT 37/15 A3003 RMK A01 T03740150  RH  026%=      5-min Rain = 0
KCO1 202008Z 11012G17KT 38/15 A3003 RMK A01 T03750151  RH  027%=      5-min Rain = 0
KCO1 202009Z 11013KT 38/14 A3003 RMK A01 T03750143  RH  025%=      5-min Rain = 0
KCO1 202010Z 10012KT 37/15 A3003 RMK A01 T03740147  RH  026%=      5-min Rain = 0
KCO1 202011Z 11013KT 37/15 A3002 RMK A01 T03730150  RH  027%=      5-min Rain = 0
KCO1 202012Z 11012KT 37/15 A3002 RMK A01 T03740150  RH  027%=      5-min Rain = 0
KCO1 202013Z 10013KT 37/15 A3002 RMK A01 T03710148  RH  027%=      5-min Rain = 0
KCO1 202014Z 11013KT 37/15 A3002 RMK A01 T03700149  RH  027%=      5-min Rain = 0
KCO1 202015Z 11015KT 37/15 A3002 RMK A01 T03700153  RH  028%=      5-min Rain = 0
KCO1 202016Z 13015G20KT 37/15 A3002 RMK A01 T03700145  RH  026%=      5-min Rain = 0
KCO1 202017Z 12011KT 37/15 A3002 RMK A01 T03690148  RH  027%=      5-min Rain = 0
KCO1 202018Z 12009KT 37/15 A3002 RMK A01 T03700149  RH  027%=      5-min Rain = 0
KCO1 202019Z 11011KT 37/15 A3002 RMK A01 T03710149  RH  027%=      5-min Rain = 0
KCO1 202020Z 12013KT 37/15 A3002 RMK A01 T03730149  RH  027%=      5-min Rain = 0
KCO1 202021Z 12016KT 38/15 A3002 RMK A01 T03750148  RH  026%=      5-min Rain = 0
KCO1 202022Z 12014KT 37/15 A3002 RMK A01 T03740148  RH  026%=      5-min Rain = 0
KCO1 202023Z 12015KT 37/15 A3002 RMK A01 T03740148  RH  026%=      5-min Rain = 0
KCO1 202024Z 12014KT 38/15 A3002 RMK A01 T03750145  RH  026%=      5-min Rain = 0
KCO1 202025Z 12012G17KT 38/15 A3002 RMK A01 T03750146  RH  026%=      5-min Rain = 0
KCO1 202026Z 12015KT 38/14 A3002 RMK A01 T03760142  RH  025%=      5-min Rain = 0
KCO1 202027Z 12011KT 37/14 A3002 RMK A01 T03740143  RH  025%=      5-min Rain = 0
KCO1 202028Z 11013KT 38/15 A3002 RMK A01 T03750146  RH  026%=      5-min Rain = 0
KCO1 202029Z 11012KT 37/15 A3002 RMK A01 T03740146  RH  026%=      5-min Rain = 0
KCO1 202030Z 13008KT 37/15 A3002 RMK A01 T03730148  RH  026%=      5-min Rain = 0
KCO1 202031Z 11011KT 37/15 A3002 RMK A01 T03720152  RH  027%=      5-min Rain = 0
KCO1 202032Z 11012KT 37/16 A3002 RMK A01 T03710155  RH  028%=      5-min Rain = 0
KCO1 202033Z 13012G18KT 37/16 A3001 RMK A01 T03720156  RH  028%=      5-min Rain = 0
KCO1 202034Z 12016KT 37/16 A3001 RMK A01 T03730155  RH  028%=      5-min Rain = 0
KCO1 202035Z 11016KT 37/16 A3001 RMK A01 T03720156  RH  028%=      5-min Rain = 0
KCO1 202036Z 11014KT 37/16 A3001 RMK A01 T03710156  RH  028%=      5-min Rain = 0
KCO1 202037Z 11011KT 37/16 A3001 RMK A01 T03710157  RH  028%=      5-min Rain = 0
KCO1 202038Z 12009G15KT 37/16 A3001 RMK A01 T03710159  RH  029%=      5-min Rain = 0
KCO1 202039Z 12010KT 38/16 A3001 RMK A01 T03750155  RH  027%=      5-min Rain = 0
KCO1 202040Z 15009KT 37/16 A3001 RMK A01 T03740155  RH  027%=      5-min Rain = 0
KCO1 202041Z 13010KT 37/16 A3001 RMK A01 T03730157  RH  028%=      5-min Rain = 0
KCO1 202042Z 13013G18KT 37/16 A3001 RMK A01 T03740158  RH  028%=      5-min Rain = 0
KCO1 202043Z 11013KT 38/16 A3001 RMK A01 T03750158  RH  028%=      5-min Rain = 0
KCO1 202044Z 11014KT 37/16 A3001 RMK A01 T03740157  RH  028%=      5-min Rain = 0
KCO1 202045Z 11011KT 37/16 A3001 RMK A01 T03710156  RH  028%=      5-min Rain = 0
KCO1 202046Z 11010KT 37/16 A3001 RMK A01 T03690157  RH  028%=      5-min Rain = 0
KCO1 202047Z 10010KT 37/16 A3001 RMK A01 T03710156  RH  028%=      5-min Rain = 0
KCO1 202048Z 10010KT 37/16 A3001 RMK A01 T03710155  RH  028%=      5-min Rain = 0
KCO1 202049Z 12009KT 37/15 A3001 RMK A01 T03690154  RH  028%=      5-min Rain = 0
KCO1 202050Z 12008KT 37/15 A3001 RMK A01 T03690154  RH  028%=      5-min Rain = 0
KCO1 202051Z 12012KT 37/16 A30 RMK A01 T03700156  RH  028%=      5-min Rain = 0
KCO1 202052Z 11017KT 38/16 A3001 RMK A01 T03760158  RH  028%=      5-min Rain = 0
KCO1 202053Z 10012KT 38/16 A30 RMK A01 T03750157  RH  028%=      5-min Rain = 0
KCO1 202054Z 12011KT 37/16 A30 RMK A01 T03730158  RH  028%=      5-min Rain = 0
KCO1 202055Z 11012KT 37/16 A30 RMK A01 T03730157  RH  028%=      5-min Rain = 0
KCO1 202056Z 11012KT 37/16 A30 RMK A01 T03740158  RH  028%=      5-min Rain = 0
KCO1 202057Z 11014KT 37/16 A30 RMK A01 T03740156  RH  028%=      5-min Rain = 0
KCO1 202058Z 12011G16KT 37/16 A30 RMK A01 T03730156  RH  028%=      5-min Rain = 0
KCO1 202059Z 13017KT 37/15 A30 RMK A01 T03740150  RH  027%=      5-min Rain = 0
KCO1 202100Z 12015G20KT 37/15 A30 RMK A01 T03740149  RH  026%=      5-min Rain = 0
KCO1 202101Z 12013KT 38/15 A30 RMK A01 T03760151  RH  026%=      5-min Rain = 0
KCO1 202102Z 12012KT 38/15 A30 RMK A01 T03770149  RH  026%=      5-min Rain = 0
KCO1 202103Z 14015KT 38/15 A30 RMK A01 T03760149  RH  026%=      5-min Rain = 0
KCO1 202104Z 13011KT 37/15 A30 RMK A01 T03740150  RH  026%=      5-min Rain = 0
KCO1 202105Z 11016KT 37/15 A30 RMK A01 T03740152  RH  027%=      5-min Rain = 0
KCO1 202106Z 12016KT 37/15 A30 RMK A01 T03730152  RH  027%=      5-min Rain = 0
KCO1 202107Z 13014KT 37/16 A30 RMK A01 T03720155  RH  028%=      5-min Rain = 0
KCO1 202108Z 13012KT 37/15 A30 RMK A01 T03710153  RH  027%=      5-min Rain = 0
KCO1 202109Z 12012KT 37/15 A30 RMK A01 T03720153  RH  027%=      5-min Rain = 0
KCO1 202110Z 13009KT 38/15 A30 RMK A01 T03760150  RH  026%=      5-min Rain = 0
KCO1 202111Z 13007KT 38/15 A30 RMK A01 T03760151  RH  026%=      5-min Rain = 0
KCO1 202112Z 10008KT 38/15 A30 RMK A01 T03750152  RH  027%=      5-min Rain = 0
KCO1 202113Z 11009KT 38/15 A30 RMK A01 T03780147  RH  025%=      5-min Rain = 0
KCO1 202114Z 10015KT 38/15 A30 RMK A01 T03820146  RH  025%=      5-min Rain = 0
KCO1 202115Z 10015KT 38/14 A30 RMK A01 T03810143  RH  024%=      5-min Rain = 0
KCO1 202116Z 10009G14KT 38/14 A2999 RMK A01 T03780141  RH  025%=      5-min Rain = 0
KCO1 202117Z 12010KT 38/14 A2999 RMK A01 T03760144  RH  025%=      5-min Rain = 0
KCO1 202118Z 11010KT 38/15 A2999 RMK A01 T03750147  RH  026%=      5-min Rain = 0
KCO1 202119Z 10009KT 38/15 A2999 RMK A01 T03760148  RH  026%=      5-min Rain = 0
KCO1 202120Z 10007KT 38/15 A2999 RMK A01 T03790150  RH  026%=      5-min Rain = 0
KCO1 202121Z 11010KT 38/15 A2999 RMK A01 T03820151  RH  026%=      5-min Rain = 0
KCO1 202122Z 13014KT 38/14 A2999 RMK A01 T03810138  RH  024%=      5-min Rain = 0
KCO1 202123Z 13013KT 38/13 A2999 RMK A01 T03800127  RH  022%=      5-min Rain = 0
KCO1 202124Z 13011KT 38/13 A2999 RMK A01 T03790129  RH  023%=      5-min Rain = 0
KCO1 202125Z 13010KT 38/13 A2999 RMK A01 T03760128  RH  023%=      5-min Rain = 0
KCO1 202126Z 13011KT 38/13 A2999 RMK A01 T03750132  RH  023%=      5-min Rain = 0
KCO1 202127Z 13014KT 38/14 A2999 RMK A01 T03760138  RH  024%=      5-min Rain = 0
KCO1 202128Z 13014G19KT 38/15 A2999 RMK A01 T03780145  RH  025%=      5-min Rain = 0
KCO1 202129Z 13016KT 38/14 A2999 RMK A01 T03800141  RH  024%=      5-min Rain = 0
KCO1 202130Z 12013KT 38/14 A2999 RMK A01 T03790141  RH  024%=      5-min Rain = 0
KCO1 202131Z 11013KT 38/14 A2999 RMK A01 T03770143  RH  025%=      5-min Rain = 0
KCO1 202132Z 12015KT 38/14 A2999 RMK A01 T03760143  RH  025%=      5-min Rain = 0
KCO1 202133Z 11014KT 38/14 A2999 RMK A01 T03760140  RH  025%=      5-min Rain = 0
KCO1 202134Z 11014KT 38/14 A2999 RMK A01 T03760137  RH  024%=      5-min Rain = 0
KCO1 202135Z 12014KT 38/14 A2999 RMK A01 T03760138  RH  024%=      5-min Rain = 0
KCO1 202136Z 12010KT 38/14 A2999 RMK A01 T03760136  RH  024%=      5-min Rain = 0
KCO1 202137Z 12008G15KT 38/14 A2999 RMK A01 T03760135  RH  024%=      5-min Rain = 0
KCO1 202138Z 13011KT 38/14 A2999 RMK A01 T03760138  RH  024%=      5-min Rain = 0
KCO1 202139Z 13007KT 38/14 A2999 RMK A01 T03750138  RH  024%=      5-min Rain = 0
KCO1 202140Z 14008G15KT 38/14 A2998 RMK A01 T03750137  RH  024%=      5-min Rain = 0
KCO1 202141Z 12016KT 38/14 A2999 RMK A01 T03760139  RH  024%=      5-min Rain = 0
KCO1 202142Z 12014KT 38/14 A2999 RMK A01 T03780137  RH  024%=      5-min Rain = 0
KCO1 202143Z 11010KT 38/14 A2999 RMK A01 T03780136  RH  024%=      5-min Rain = 0
KCO1 202144Z 13011KT 38/14 A2999 RMK A01 T03770138  RH  024%=      5-min Rain = 0
KCO1 202145Z 15009KT 38/14 A2999 RMK A01 T03770137  RH  024%=      5-min Rain = 0
KCO1 202146Z 13008KT 38/14 A2999 RMK A01 T03780136  RH  024%=      5-min Rain = 0
KCO1 202147Z 13006KT 38/14 A2999 RMK A01 T03790138  RH  024%=      5-min Rain = 0
KCO1 202148Z 10010KT 38/14 A2999 RMK A01 T03820140  RH  024%=      5-min Rain = 0
KCO1 202149Z 10009KT 38/14 A2999 RMK A01 T03830142  RH  024%=      5-min Rain = 0
KCO1 202150Z 10006KT 38/14 A2999 RMK A01 T03810140  RH  024%=      5-min Rain = 0
KCO1 202151Z 12006KT 38/14 A2999 RMK A01 T03770144  RH  025%=      5-min Rain = 0
KCO1 202152Z 10013KT 38/15 A2999 RMK A01 T03770147  RH  026%=      5-min Rain = 0
KCO1 202153Z 10012KT 38/15 A2999 RMK A01 T03770148  RH  026%=      5-min Rain = 0
KCO1 202154Z 10010KT 38/15 A2999 RMK A01 T03750148  RH  026%=      5-min Rain = 0
KCO1 202155Z 11007KT 38/15 A2998 RMK A01 T03760149  RH  026%=      5-min Rain = 0
KCO1 202156Z 13010KT 38/15 A2998 RMK A01 T03800150  RH  026%=      5-min Rain = 0
KCO1 202157Z 12015KT 38/15 A2998 RMK A01 T03800148  RH  025%=      5-min Rain = 0
KCO1 202158Z 12013KT 38/14 A2998 RMK A01 T03780141  RH  025%=      5-min Rain = 0
KCO1 202159Z 11010KT 38/14 A2998 RMK A01 T03760142  RH  025%=      5-min Rain = 0
KCO1 202200Z 12013KT 38/14 A2998 RMK A01 T03750141  RH  025%=      5-min Rain = 0
KCO1 202201Z 13013KT 37/14 A2998 RMK A01 T03740140  RH  025%=      5-min Rain = 0
KCO1 202202Z 12013KT 37/14 A2999 RMK A01 T03740139  RH  025%=      5-min Rain = 0
KCO1 202203Z 14012KT 38/14 A2999 RMK A01 T03750137  RH  024%=      5-min Rain = 0
KCO1 202204Z 14011KT 38/14 A2998 RMK A01 T03760135  RH  024%=      5-min Rain = 0
KCO1 202205Z 12011KT 38/14 A2999 RMK A01 T03760136  RH  024%=      5-min Rain = 0
KCO1 202206Z 12012KT 38/14 A2999 RMK A01 T03760141  RH  025%=      5-min Rain = 0
KCO1 202207Z 11012KT 38/15 A2999 RMK A01 T03770146  RH  025%=      5-min Rain = 0
KCO1 202208Z 11012KT 38/15 A2999 RMK A01 T03800146  RH  025%=      5-min Rain = 0
KCO1 202209Z 10010KT 38/14 A2999 RMK A01 T03790142  RH  024%=      5-min Rain = 0
KCO1 202210Z 09012KT 38/14 A2999 RMK A01 T03780142  RH  025%=      5-min Rain = 0
KCO1 202211Z 11014KT 38/14 A2999 RMK A01 T03790142  RH  025%=      5-min Rain = 0
KCO1 202212Z 11014G19KT 38/14 A2999 RMK A01 T03790140  RH  024%=      5-min Rain = 0
KCO1 202213Z 11013KT 38/14 A2999 RMK A01 T03770139  RH  024%=      5-min Rain = 0
KCO1 202214Z 12013KT 38/14 A2999 RMK A01 T03750139  RH  024%=      5-min Rain = 0
KCO1 202215Z 11012KT 37/14 A2999 RMK A01 T03740139  RH  025%=      5-min Rain = 0
KCO1 202216Z 11014KT 38/14 A2999 RMK A01 T03750136  RH  024%=      5-min Rain = 0
KCO1 202217Z 11016KT 38/14 A2999 RMK A01 T03750135  RH  024%=      5-min Rain = 0
KCO1 202218Z 11014G19KT 38/13 A2999 RMK A01 T03750132  RH  024%=      5-min Rain = 0
KCO1 202219Z 10014G19KT 38/13 A2999 RMK A01 T03750126  RH  023%=      5-min Rain = 0
KCO1 202220Z 10012KT 38/12 A2999 RMK A01 T03760123  RH  022%=      5-min Rain = 0
KCO1 202221Z 13011G16KT 38/13 A2999 RMK A01 T03770127  RH  023%=      5-min Rain = 0
KCO1 202222Z 10015KT 38/13 A2999 RMK A01 T03770132  RH  023%=      5-min Rain = 0
KCO1 202223Z 11011G16KT 38/13 A2999 RMK A01 T03780131  RH  023%=      5-min Rain = 0
KCO1 202224Z 12012G17KT 38/13 A2999 RMK A01 T03790133  RH  023%=      5-min Rain = 0
KCO1 202225Z 12015KT 38/13 A2999 RMK A01 T03800132  RH  023%=      5-min Rain = 0
KCO1 202226Z 11014KT 38/13 A2999 RMK A01 T03780133  RH  023%=      5-min Rain = 0
KCO1 202227Z 11009KT 38/13 A2999 RMK A01 T03760134  RH  024%=      5-min Rain = 0
KCO1 202228Z 11008KT 38/13 A2998 RMK A01 T03750132  RH  023%=      5-min Rain = 0
KCO1 202229Z 10009KT 37/14 A2998 RMK A01 T03740135  RH  024%=      5-min Rain = 0
KCO1 202230Z 12014KT 37/14 A2998 RMK A01 T03730136  RH  024%=      5-min Rain = 0
KCO1 202231Z 12016KT 37/14 A2998 RMK A01 T03730135  RH  024%=      5-min Rain = 0
KCO1 202232Z 13012KT 37/14 A2998 RMK A01 T03720136  RH  025%=      5-min Rain = 0
KCO1 202233Z 13011KT 37/14 A2998 RMK A01 T03720137  RH  025%=      5-min Rain = 0
KCO1 202234Z 13014KT 37/14 A2998 RMK A01 T03720137  RH  025%=      5-min Rain = 0
KCO1 202235Z 13013KT 37/13 A2998 RMK A01 T03690134  RH  025%=      5-min Rain = 0
KCO1 202236Z 12014KT 37/13 A2998 RMK A01 T03660134  RH  025%=      5-min Rain = 0
KCO1 202237Z 13013KT 36/13 A2998 RMK A01 T03640132  RH  025%=      5-min Rain = 0
KCO1 202238Z 12012KT 36/13 A2998 RMK A01 T03620131  RH  025%=      5-min Rain = 0
KCO1 202239Z 12010KT 36/13 A2998 RMK A01 T03610131  RH  025%=      5-min Rain = 0
KCO1 202240Z 12009KT 36/13 A2998 RMK A01 T03610130  RH  025%=      5-min Rain = 0
KCO1 202241Z 14008KT 36/13 A2998 RMK A01 T03630130  RH  025%=      5-min Rain = 0
KCO1 202242Z 14009KT 37/13 A2998 RMK A01 T03670132  RH  025%=      5-min Rain = 0
KCO1 202243Z 13008KT 37/13 A2998 RMK A01 T03700134  RH  025%=      5-min Rain = 0
KCO1 202244Z 11009G14KT 37/14 A2998 RMK A01 T03710136  RH  025%=      5-min Rain = 0
KCO1 202245Z 10012KT 37/13 A2998 RMK A01 T03730131  RH  024%=      5-min Rain = 0
KCO1 202246Z 11011KT 37/13 A2998 RMK A01 T03730130  RH  023%=      5-min Rain = 0
KCO1 202247Z 10011KT 37/13 A2998 RMK A01 T03730131  RH  024%=      5-min Rain = 0
KCO1 202248Z 11011KT 37/13 A2998 RMK A01 T03730130  RH  023%=      5-min Rain = 0
KCO1 202249Z 13012KT 37/13 A2998 RMK A01 T03740132  RH  024%=      5-min Rain = 0
KCO1 202250Z 12010KT 38/13 A2998 RMK A01 T03760133  RH  024%=      5-min Rain = 0
KCO1 202251Z 11010KT 38/13 A2998 RMK A01 T03770132  RH  023%=      5-min Rain = 0
KCO1 202252Z 11012KT 38/13 A2998 RMK A01 T03770132  RH  023%=      5-min Rain = 0
KCO1 202253Z 10011KT 38/13 A2998 RMK A01 T03780132  RH  023%=      5-min Rain = 0
KCO1 202254Z 10013KT 38/13 A2998 RMK A01 T03770129  RH  023%=      5-min Rain = 0
KCO1 202255Z 10010KT 37/13 A2998 RMK A01 T03740127  RH  023%=      5-min Rain = 0
KCO1 202256Z 11012G18KT 37/13 A2998 RMK A01 T03720128  RH  023%=      5-min Rain = 0
KCO1 202257Z 12013KT 37/13 A2998 RMK A01 T03730128  RH  023%=      5-min Rain = 0
KCO1 202258Z 12013KT 37/13 A2998 RMK A01 T03740129  RH  023%=      5-min Rain = 0
KCO1 202259Z 14012KT 38/13 A2998 RMK A01 T03750129  RH  023%=      5-min Rain = 0
KCO1 202300Z 13010G15KT 37/13 A2998 RMK A01 T03730129  RH  023%=      5-min Rain = 0
KCO1 202301Z 11013KT 38/13 A2998 RMK A01 T03750131  RH  023%=      5-min Rain = 0
KCO1 202302Z 11013KT 38/13 A2998 RMK A01 T03760128  RH  023%=      5-min Rain = 0
KCO1 202303Z 11012G17KT 37/13 A2998 RMK A01 T03740126  RH  023%=      5-min Rain = 0
KCO1 202304Z 12010KT 37/13 A2998 RMK A01 T03730128  RH  023%=      5-min Rain = 0
KCO1 202305Z 11011KT 37/13 A2998 RMK A01 T03730129  RH  023%=      5-min Rain = 0
KCO1 202306Z 12011KT 37/13 A2998 RMK A01 T03730129  RH  023%=      5-min Rain = 0
KCO1 202307Z 10014G19KT 38/13 A2998 RMK A01 T03750125  RH  023%=      5-min Rain = 0
KCO1 202308Z 12015KT 38/13 A2998 RMK A01 T03750125  RH  022%=      5-min Rain = 0
KCO1 202309Z 12014KT 37/13 A2998 RMK A01 T03710127  RH  023%=      5-min Rain = 0
KCO1 202310Z 12012KT 37/13 A2998 RMK A01 T03710129  RH  024%=      5-min Rain = 0
KCO1 202311Z 13010KT 37/13 A2998 RMK A01 T03710129  RH  023%=      5-min Rain = 0
KCO1 202312Z 13012KT 37/13 A2998 RMK A01 T03720127  RH  023%=      5-min Rain = 0
KCO1 202313Z 13010KT 37/13 A2998 RMK A01 T03710127  RH  023%=      5-min Rain = 0
KCO1 202314Z 12010KT 37/13 A2998 RMK A01 T03710127  RH  023%=      5-min Rain = 0
KCO1 202315Z 12009KT 37/13 A2998 RMK A01 T03710127  RH  023%=      5-min Rain = 0
KCO1 202316Z 11010KT 37/12 A2998 RMK A01 T03700124  RH  023%=      5-min Rain = 0
KCO1 202317Z 11015KT 37/12 A2998 RMK A01 T03670124  RH  023%=      5-min Rain = 0
KCO1 202318Z 13012KT 37/13 A2998 RMK A01 T03660125  RH  024%=      5-min Rain = 0
KCO1 202319Z 13010KT 37/13 A2998 RMK A01 T03660126  RH  024%=      5-min Rain = 0
KCO1 202320Z 13009KT 37/13 A2998 RMK A01 T03690126  RH  023%=      5-min Rain = 0
KCO1 202321Z 12010KT 37/13 A2998 RMK A01 T03700126  RH  023%=      5-min Rain = 0
KCO1 202322Z 12011KT 37/13 A2998 RMK A01 T03690129  RH  024%=      5-min Rain = 0
KCO1 202323Z 11011KT 37/13 A2998 RMK A01 T03690130  RH  024%=      5-min Rain = 0
KCO1 202324Z 12013KT 37/13 A2998 RMK A01 T03700131  RH  024%=      5-min Rain = 0
KCO1 202325Z 13015KT 37/13 A2998 RMK A01 T03690130  RH  024%=      5-min Rain = 0
KCO1 202326Z 11015KT 37/13 A2998 RMK A01 T03680131  RH  024%=      5-min Rain = 0
KCO1 202327Z 11014KT 37/13 A2998 RMK A01 T03690132  RH  024%=      5-min Rain = 0
KCO1 202328Z 11015KT 37/13 A2998 RMK A01 T03670130  RH  024%=      5-min Rain = 0
KCO1 202329Z 12014KT 37/13 A2998 RMK A01 T03650128  RH  024%=      5-min Rain = 0
KCO1 202330Z 11012KT 36/13 A2998 RMK A01 T03640126  RH  024%=      5-min Rain = 0
KCO1 202331Z 12013KT 36/13 A2998 RMK A01 T03640127  RH  024%=      5-min Rain = 0
KCO1 202332Z 12015KT 37/13 A2998 RMK A01 T03650126  RH  024%=      5-min Rain = 0
KCO1 202333Z 11012KT 37/13 A2998 RMK A01 T03650127  RH  024%=      5-min Rain = 0
KCO1 202334Z 12012KT 36/13 A2998 RMK A01 T03640126  RH  024%=      5-min Rain = 0
KCO1 202335Z 12010KT 36/13 A2998 RMK A01 T03620126  RH  024%=      5-min Rain = 0
KCO1 202336Z 14010KT 36/13 A2998 RMK A01 T03620127  RH  024%=      5-min Rain = 0
KCO1 202337Z 12012KT 36/13 A2998 RMK A01 T03640126  RH  024%=      5-min Rain = 0
KCO1 202338Z 12012KT 37/13 A2998 RMK A01 T03650127  RH  024%=      5-min Rain = 0
KCO1 202339Z 13012KT 36/13 A2998 RMK A01 T03640129  RH  024%=      5-min Rain = 0
KCO1 202340Z 13013KT 36/13 A2998 RMK A01 T03610128  RH  025%=      5-min Rain = 0
KCO1 202341Z 11013KT 36/13 A2998 RMK A01 T03600129  RH  025%=      5-min Rain = 0
KCO1 202342Z 12013KT 36/13 A2998 RMK A01 T03590128  RH  025%=      5-min Rain = 0
KCO1 202343Z 12013KT 36/13 A2998 RMK A01 T03580126  RH  025%=      5-min Rain = 0
KCO1 202344Z 13012KT 36/13 A2998 RMK A01 T03580126  RH  025%=      5-min Rain = 0
KCO1 202345Z 13010KT 36/13 A2998 RMK A01 T03570126  RH  025%=      5-min Rain = 0
KCO1 202346Z 13012KT 36/13 A2998 RMK A01 T03580125  RH  025%=      5-min Rain = 0
KCO1 202347Z 12010KT 36/12 A2998 RMK A01 T03610124  RH  024%=      5-min Rain = 0
KCO1 202348Z 12010KT 36/12 A2998 RMK A01 T03630123  RH  024%=      5-min Rain = 0
KCO1 202349Z 12008KT 36/12 A2998 RMK A01 T03640124  RH  024%=      5-min Rain = 0
KCO1 202350Z 14013KT 37/12 A2998 RMK A01 T03660123  RH  023%=      5-min Rain = 0
KCO1 202351Z 13013KT 37/12 A2998 RMK A01 T03670123  RH  023%=      5-min Rain = 0
KCO1 202352Z 13013KT 37/12 A2998 RMK A01 T03670123  RH  023%=      5-min Rain = 0
KCO1 202353Z 12014KT 37/12 A2998 RMK A01 T03670123  RH  023%=      5-min Rain = 0
KCO1 202354Z 12013KT 37/12 A2998 RMK A01 T03660124  RH  023%=      5-min Rain = 0
KCO1 202355Z 12013KT 37/12 A2998 RMK A01 T03650122  RH  023%=      5-min Rain = 0
KCO1 202356Z 12011KT 36/12 A2998 RMK A01 T03630123  RH  024%=      5-min Rain = 0
KCO1 202357Z 12011KT 36/13 A2998 RMK A01 T03630125  RH  024%=      5-min Rain = 0
KCO1 202358Z 11014KT 36/13 A2998 RMK A01 T03630129  RH  025%=      5-min Rain = 0
KCO1 202359Z 11012KT 36/13 A2998 RMK A01 T03640132  RH  025%=      5-min Rain = 0
KCO1 210000Z 11011KT 36/13 A2998 RMK A01 T03640132  RH  025%=      5-min Rain = 0
KCO1 210001Z 10011KT 36/13 A2998 RMK A01 T03630130  RH  025%=      5-min Rain = 0
KCO1 210002Z 11012KT 36/13 A2998 RMK A01 T03630131  RH  025%=      5-min Rain = 0
KCO1 210003Z 11014KT 36/13 A2998 RMK A01 T03630133  RH  025%=      5-min Rain = 0
KCO1 210004Z 12013KT 36/13 A2998 RMK A01 T03630134  RH  025%=      5-min Rain = 0
KCO1 210005Z 11012KT 36/13 A2998 RMK A01 T03630134  RH  025%=      5-min Rain = 0
KCO1 210006Z 12013KT 36/13 A2998 RMK A01 T03630132  RH  025%=      5-min Rain = 0
KCO1 210007Z 12010KT 36/13 A2998 RMK A01 T03620132  RH  025%=      5-min Rain = 0
KCO1 210008Z 13012KT 36/13 A2998 RMK A01 T03610131  RH  025%=      5-min Rain = 0
KCO1 210009Z 13013KT 36/13 A2998 RMK A01 T03610128  RH  025%=      5-min Rain = 0
KCO1 210010Z 13012KT 36/13 A2998 RMK A01 T03610128  RH  025%=      5-min Rain = 0
KCO1 210011Z 13017KT 36/13 A2998 RMK A01 T03610130  RH  025%=      5-min Rain = 0
KCO1 210012Z 13016KT 36/13 A2998 RMK A01 T03620132  RH  025%=      5-min Rain = 0
KCO1 210013Z 12015KT 36/13 A2998 RMK A01 T03610132  RH  025%=      5-min Rain = 0
KCO1 210014Z 12012KT 36/13 A2998 RMK A01 T03600131  RH  025%=      5-min Rain = 0
KCO1 210015Z 12011KT 36/13 A2998 RMK A01 T03600130  RH  025%=      5-min Rain = 0
KCO1 210016Z 12013KT 36/13 A2998 RMK A01 T03600130  RH  025%=      5-min Rain = 0
KCO1 210017Z 12011KT 36/13 A2998 RMK A01 T03600131  RH  025%=      5-min Rain = 0
KCO1 210018Z 12012KT 36/13 A2998 RMK A01 T03600133  RH  026%=      5-min Rain = 0
KCO1 210019Z 12014KT 36/13 A2998 RMK A01 T03610132  RH  025%=      5-min Rain = 0
KCO1 210020Z 13013G18KT 36/13 A2998 RMK A01 T03610131  RH  025%=      5-min Rain = 0
KCO1 210021Z 12016KT 36/13 A2998 RMK A01 T03600129  RH  025%=      5-min Rain = 0
KCO1 210022Z 13014KT 36/13 A2998 RMK A01 T03600130  RH  025%=      5-min Rain = 0
KCO1 210023Z 13012KT 36/13 A2998 RMK A01 T03590128  RH  025%=      5-min Rain = 0
KCO1 210024Z 12009KT 36/13 A2998 RMK A01 T03590130  RH  025%=      5-min Rain = 0
KCO1 210025Z 12013KT 36/13 A2998 RMK A01 T03590129  RH  025%=      5-min Rain = 0
KCO1 210026Z 12010KT 36/13 A2998 RMK A01 T03590129  RH  025%=      5-min Rain = 0
KCO1 210027Z 13009KT 36/13 A2998 RMK A01 T03590129  RH  025%=      5-min Rain = 0
KCO1 210028Z 12008KT 36/13 A2998 RMK A01 T03590130  RH  025%=      5-min Rain = 0
KCO1 210029Z 13010KT 36/13 A2998 RMK A01 T03590132  RH  026%=      5-min Rain = 0
KCO1 210030Z 13015G20KT 36/13 A2998 RMK A01 T03590132  RH  026%=      5-min Rain = 0
KCO1 210031Z 12011G16KT 36/13 A2998 RMK A01 T03590127  RH  025%=      5-min Rain = 0
KCO1 210032Z 12010KT 36/13 A2998 RMK A01 T03580127  RH  025%=      5-min Rain = 0
KCO1 210033Z 12011KT 36/12 A2998 RMK A01 T03580122  RH  024%=      5-min Rain = 0
KCO1 210034Z 13013KT 36/12 A2998 RMK A01 T03580123  RH  024%=      5-min Rain = 0
KCO1 210035Z 12014KT 36/13 A2998 RMK A01 T03580127  RH  025%=      5-min Rain = 0
KCO1 210036Z 12014KT 36/13 A2998 RMK A01 T03570131  RH  026%=      5-min Rain = 0
KCO1 210037Z 13014KT 36/13 A2998 RMK A01 T03560132  RH  026%=      5-min Rain = 0
KCO1 210038Z 13013KT 36/13 A2998 RMK A01 T03550132  RH  026%=      5-min Rain = 0
KCO1 210039Z 13014KT 36/13 A2998 RMK A01 T03550132  RH  026%=      5-min Rain = 0
KCO1 210040Z 12014KT 35/13 A2998 RMK A01 T03540133  RH  026%=      5-min Rain = 0
KCO1 210041Z 11012KT 35/13 A2998 RMK A01 T03540132  RH  026%=      5-min Rain = 0
KCO1 210042Z 13014G19KT 35/13 A2998 RMK A01 T03540130  RH  026%=      5-min Rain = 0
KCO1 210043Z 12014KT 35/13 A2998 RMK A01 T03530128  RH  026%=      5-min Rain = 0
KCO1 210044Z 12014KT 35/13 A2998 RMK A01 T03540128  RH  026%=      5-min Rain = 0
KCO1 210045Z 13013KT 35/13 A2998 RMK A01 T03530128  RH  026%=      5-min Rain = 0
KCO1 210046Z 13014KT 35/13 A2998 RMK A01 T03530127  RH  026%=      5-min Rain = 0
KCO1 210047Z 13011KT 35/13 A2998 RMK A01 T03520126  RH  026%=      5-min Rain = 0
KCO1 210048Z 12013KT 35/13 A2998 RMK A01 T03520127  RH  026%=      5-min Rain = 0
KCO1 210049Z 12014KT 35/13 A2998 RMK A01 T03520127  RH  026%=      5-min Rain = 0
KCO1 210050Z 12012KT 35/13 A2998 RMK A01 T03510125  RH  026%=      5-min Rain = 0
KCO1 210051Z 13012KT 35/13 A2998 RMK A01 T03510126  RH  026%=      5-min Rain = 0
KCO1 210052Z 13010KT 35/13 A2998 RMK A01 T03510126  RH  026%=      5-min Rain = 0
KCO1 210053Z 13012KT 35/13 A2998 RMK A01 T03510126  RH  026%=      5-min Rain = 0
KCO1 210054Z 13011KT 35/13 A2998 RMK A01 T03510126  RH  026%=      5-min Rain = 0
KCO1 210055Z 13010KT 35/13 A2998 RMK A01 T03510127  RH  026%=      5-min Rain = 0
KCO1 210056Z 13010KT 35/13 A2998 RMK A01 T03510127  RH  026%=      5-min Rain = 0
KCO1 210057Z 13012KT 35/13 A2998 RMK A01 T03500127  RH  026%=      5-min Rain = 0
KCO1 210058Z 13010KT 35/13 A2998 RMK A01 T03490126  RH  026%=      5-min Rain = 0
KCO1 210059Z 13012KT 35/13 A2998 RMK A01 T03490126  RH  026%=      5-min Rain = 0
KCO1 210100Z 13013KT 35/13 A2998 RMK A01 T03490126  RH  026%=      5-min Rain = 0
KCO1 210101Z 12010KT 35/13 A2998 RMK A01 T03490127  RH  026%=      5-min Rain = 0
KCO1 210102Z 12011KT 35/13 A2998 RMK A01 T03480128  RH  027%=      5-min Rain = 0
KCO1 210103Z 12010KT 35/13 A2998 RMK A01 T03480130  RH  027%=      5-min Rain = 0
KCO1 210104Z 12012KT 35/13 A2998 RMK A01 T03470131  RH  027%=      5-min Rain = 0
KCO1 210105Z 12014KT 35/13 A2999 RMK A01 T03460131  RH  027%=      5-min Rain = 0
KCO1 210106Z 12011KT 35/13 A2999 RMK A01 T03460132  RH  027%=      5-min Rain = 0
KCO1 210107Z 12013KT 35/13 A2999 RMK A01 T03450131  RH  027%=      5-min Rain = 0
KCO1 210108Z 12011KT 35/13 A2999 RMK A01 T03450130  RH  027%=      5-min Rain = 0
KCO1 210109Z 12010KT 35/13 A2999 RMK A01 T03450131  RH  027%=      5-min Rain = 0
KCO1 210110Z 12010KT 34/13 A2999 RMK A01 T03440131  RH  028%=      5-min Rain = 0
KCO1 210111Z 12014KT 34/13 A2999 RMK A01 T03440130  RH  027%=      5-min Rain = 0
KCO1 210112Z 12011KT 34/13 A2999 RMK A01 T03440129  RH  027%=      5-min Rain = 0
KCO1 210113Z 13011KT 34/13 A2999 RMK A01 T03440129  RH  027%=      5-min Rain = 0
KCO1 210114Z 12011KT 34/13 A2999 RMK A01 T03430129  RH  028%=      5-min Rain = 0
KCO1 210115Z 12012KT 34/13 A2999 RMK A01 T03430129  RH  028%=      5-min Rain = 0
KCO1 210116Z 13010KT 34/13 A2999 RMK A01 T03420129  RH  028%=      5-min Rain = 0
KCO1 210117Z 13010KT 34/13 A2999 RMK A01 T03420130  RH  028%=      5-min Rain = 0
KCO1 210118Z 13009KT 34/13 A2999 RMK A01 T03410130  RH  028%=      5-min Rain = 0
KCO1 210119Z 13009KT 34/13 A2999 RMK A01 T03410130  RH  028%=      5-min Rain = 0
KCO1 210120Z 13011KT 34/13 A2999 RMK A01 T03400130  RH  028%=      5-min Rain = 0
KCO1 210121Z 12010KT 34/13 A2999 RMK A01 T03400130  RH  028%=      5-min Rain = 0
KCO1 210122Z 13009KT 34/13 A2999 RMK A01 T03400130  RH  028%=      5-min Rain = 0
KCO1 210123Z 13010KT 34/13 A2999 RMK A01 T03390130  RH  028%=      5-min Rain = 0
KCO1 210124Z 13010KT 34/13 A2999 RMK A01 T03390129  RH  028%=      5-min Rain = 0
KCO1 210125Z 13010KT 34/13 A2999 RMK A01 T03390129  RH  028%=      5-min Rain = 0
KCO1 210126Z 13010KT 34/13 A2999 RMK A01 T03390130  RH  028%=      5-min Rain = 0
KCO1 210127Z 13009KT 34/13 A2999 RMK A01 T03390130  RH  028%=      5-min Rain = 0
KCO1 210128Z 13010KT 34/13 A2999 RMK A01 T03380130  RH  028%=      5-min Rain = 0
KCO1 210129Z 13009KT 34/13 A2999 RMK A01 T03380131  RH  029%=      5-min Rain = 0
KCO1 210130Z 13008KT 34/13 A2999 RMK A01 T03370131  RH  029%=      5-min Rain = 0
KCO1 210131Z 13010KT 34/13 A2999 RMK A01 T03370131  RH  029%=      5-min Rain = 0
KCO1 210132Z 12009KT 34/13 A30 RMK A01 T03360131  RH  029%=      5-min Rain = 0
KCO1 210133Z 13010KT 34/13 A30 RMK A01 T03360131  RH  029%=      5-min Rain = 0
KCO1 210134Z 13009KT 34/13 A30 RMK A01 T03350131  RH  029%=      5-min Rain = 0
KCO1 210135Z 13009KT 34/13 A30 RMK A01 T03350130  RH  029%=      5-min Rain = 0
KCO1 210136Z 13009KT 33/13 A30 RMK A01 T03340130  RH  029%=      5-min Rain = 0
KCO1 210137Z 13009KT 33/13 A30 RMK A01 T03340130  RH  029%=      5-min Rain = 0
KCO1 210138Z 13009KT 33/13 A30 RMK A01 T03340130  RH  029%=      5-min Rain = 0
KCO1 210139Z 13008KT 33/13 A30 RMK A01 T03340129  RH  029%=      5-min Rain = 0
KCO1 210140Z 13008KT 33/13 A30 RMK A01 T03340130  RH  029%=      5-min Rain = 0
KCO1 210141Z 13009KT 33/13 A30 RMK A01 T03330130  RH  029%=      5-min Rain = 0
KCO1 210142Z 13008KT 33/13 A30 RMK A01 T03330130  RH  029%=      5-min Rain = 0
KCO1 210143Z 13008KT 33/13 A30 RMK A01 T03330130  RH  029%=      5-min Rain = 0
KCO1 210144Z 13009KT 33/13 A30 RMK A01 T03320130  RH  029%=      5-min Rain = 0
KCO1 210145Z 13009KT 33/13 A30 RMK A01 T03320129  RH  029%=      5-min Rain = 0
KCO1 210146Z 13011KT 33/13 A30 RMK A01 T03310128  RH  029%=      5-min Rain = 0
KCO1 210147Z 13010KT 33/13 A30 RMK A01 T03320128  RH  029%=      5-min Rain = 0
KCO1 210148Z 13010KT 33/13 A30 RMK A01 T03320128  RH  029%=      5-min Rain = 0
KCO1 210149Z 13011KT 33/13 A30 RMK A01 T03320128  RH  029%=      5-min Rain = 0
KCO1 210150Z 13010KT 33/13 A30 RMK A01 T03320128  RH  029%=      5-min Rain = 0
KCO1 210151Z 12010KT 33/13 A30 RMK A01 T03320128  RH  029%=      5-min Rain = 0
KCO1 210152Z 13011KT 33/13 A30 RMK A01 T03320128  RH  029%=      5-min Rain = 0
KCO1 210153Z 13011KT 33/13 A30 RMK A01 T03320128  RH  029%=      5-min Rain = 0
KCO1 210154Z 13009KT 33/13 A30 RMK A01 T03310128  RH  029%=      5-min Rain = 0
KCO1 210155Z 13010KT 33/13 A30 RMK A01 T03310129  RH  029%=      5-min Rain = 0
KCO1 210156Z 13009KT 33/13 A30 RMK A01 T03300129  RH  029%=      5-min Rain = 0
KCO1 210157Z 13008KT 33/13 A30 RMK A01 T03300129  RH  030%=      5-min Rain = 0
KCO1 210158Z 13008KT 33/13 A30 RMK A01 T03290129  RH  030%=      5-min Rain = 0
KCO1 210159Z 13008KT 33/13 A30 RMK A01 T03280129  RH  030%=      5-min Rain = 0
KCO1 210200Z 13008KT 33/13 A30 RMK A01 T03280129  RH  030%=      5-min Rain = 0
KCO1 210201Z 13007KT 33/13 A30 RMK A01 T03280129  RH  030%=      5-min Rain = 0
KCO1 210202Z 13007KT 33/13 A30 RMK A01 T03270129  RH  030%=      5-min Rain = 0
KCO1 210203Z 13006KT 33/13 A30 RMK A01 T03260130  RH  030%=      5-min Rain = 0
KCO1 210204Z 13007KT 33/13 A30 RMK A01 T03250129  RH  030%=      5-min Rain = 0
KCO1 210205Z 14007KT 33/13 A3001 RMK A01 T03250129  RH  030%=      5-min Rain = 0
KCO1 210206Z 13007KT 33/13 A3001 RMK A01 T03250130  RH  031%=      5-min Rain = 0
KCO1 210207Z 13008KT 32/13 A3001 RMK A01 T03240130  RH  031%=      5-min Rain = 0
KCO1 210208Z 14009KT 32/13 A3001 RMK A01 T03240130  RH  031%=      5-min Rain = 0
KCO1 210209Z 14007KT 32/13 A3001 RMK A01 T03240130  RH  031%=      5-min Rain = 0
KCO1 210210Z 14008KT 32/13 A3001 RMK A01 T03240130  RH  031%=      5-min Rain = 0
KCO1 210211Z 14008KT 32/13 A30 RMK A01 T03240130  RH  031%=      5-min Rain = 0
KCO1 210212Z 14008KT 32/13 A3001 RMK A01 T03240131  RH  031%=      5-min Rain = 0
KCO1 210213Z 14009KT 32/13 A3001 RMK A01 T03240130  RH  031%=      5-min Rain = 0
KCO1 210214Z 14009KT 32/13 A3001 RMK A01 T03240131  RH  031%=      5-min Rain = 0
KCO1 210215Z 14009KT 32/13 A3001 RMK A01 T03240131  RH  031%=      5-min Rain = 0
KCO1 210216Z 14008KT 32/13 A3001 RMK A01 T03240131  RH  031%=      5-min Rain = 0
KCO1 210217Z 14009KT 32/13 A3001 RMK A01 T03240132  RH  031%=      5-min Rain = 0
KCO1 210218Z 14008KT 32/13 A3001 RMK A01 T03240132  RH  031%=      5-min Rain = 0
KCO1 210219Z 14009KT 32/13 A3001 RMK A01 T03240132  RH  031%=      5-min Rain = 0
KCO1 210220Z 14010KT 32/13 A3001 RMK A01 T03230132  RH  031%=      5-min Rain = 0
KCO1 210221Z 14009KT 32/13 A3001 RMK A01 T03230131  RH  031%=      5-min Rain = 0
KCO1 210222Z 14009KT 32/13 A3001 RMK A01 T03230132  RH  031%=      5-min Rain = 0
KCO1 210223Z 14009KT 32/13 A3001 RMK A01 T03230132  RH  031%=      5-min Rain = 0
KCO1 210224Z 14009KT 32/13 A3001 RMK A01 T03230132  RH  031%=      5-min Rain = 0
KCO1 210225Z 14010KT 32/13 A3001 RMK A01 T03230132  RH  031%=      5-min Rain = 0
KCO1 210226Z 14010KT 32/13 A3001 RMK A01 T03230132  RH  031%=      5-min Rain = 0
KCO1 210227Z 14010KT 32/13 A3001 RMK A01 T03230132  RH  031%=      5-min Rain = 0
KCO1 210228Z 14009KT 32/13 A3002 RMK A01 T03230132  RH  031%=      5-min Rain = 0
KCO1 210229Z 14008KT 32/13 A3002 RMK A01 T03220132  RH  031%=      5-min Rain = 0
KCO1 210230Z 14009KT 32/13 A3002 RMK A01 T03220132  RH  032%=      5-min Rain = 0
KCO1 210231Z 14010KT 32/13 A3002 RMK A01 T03210132  RH  032%=      5-min Rain = 0
KCO1 210232Z 14011KT 32/13 A3002 RMK A01 T03210132  RH  032%=      5-min Rain = 0
KCO1 210233Z 14009KT 32/13 A3002 RMK A01 T03210132  RH  032%=      5-min Rain = 0
KCO1 210234Z 14010KT 32/13 A3002 RMK A01 T03210132  RH  032%=      5-min Rain = 0
KCO1 210235Z 14009KT 32/13 A3002 RMK A01 T03210133  RH  032%=      5-min Rain = 0
KCO1 210236Z 14010KT 32/13 A3002 RMK A01 T03200132  RH  032%=      5-min Rain = 0
KCO1 210237Z 15009KT 32/13 A3002 RMK A01 T03200133  RH  032%=      5-min Rain = 0
KCO1 210238Z 14009KT 32/13 A3002 RMK A01 T03200133  RH  032%=      5-min Rain = 0
KCO1 210239Z 15009KT 32/13 A3002 RMK A01 T03200133  RH  032%=      5-min Rain = 0
KCO1 210240Z 14009KT 32/13 A3002 RMK A01 T03190133  RH  032%=      5-min Rain = 0
KCO1 210241Z 14008KT 32/13 A3002 RMK A01 T03190133  RH  032%=      5-min Rain = 0
KCO1 210242Z 14009KT 32/13 A3002 RMK A01 T03190133  RH  032%=      5-min Rain = 0
KCO1 210243Z 14010KT 32/13 A3002 RMK A01 T03190133  RH  032%=      5-min Rain = 0
KCO1 210244Z 14009KT 32/13 A3002 RMK A01 T03180133  RH  032%=      5-min Rain = 0
KCO1 210245Z 14009KT 32/13 A3002 RMK A01 T03180133  RH  032%=      5-min Rain = 0
KCO1 210246Z 14008KT 32/13 A3002 RMK A01 T03180134  RH  033%=      5-min Rain = 0
KCO1 210247Z 14010KT 32/13 A3002 RMK A01 T03170134  RH  033%=      5-min Rain = 0
KCO1 210248Z 14010KT 32/13 A3002 RMK A01 T03170134  RH  033%=      5-min Rain = 0
KCO1 210249Z 14010KT 32/13 A3002 RMK A01 T03170134  RH  033%=      5-min Rain = 0
KCO1 210250Z 15010KT 32/13 A3002 RMK A01 T03170134  RH  033%=      5-min Rain = 0
KCO1 210251Z 15009KT 32/13 A3002 RMK A01 T03170134  RH  033%=      5-min Rain = 0
KCO1 210252Z 14009KT 32/13 A3002 RMK A01 T03170134  RH  033%=      5-min Rain = 0
KCO1 210253Z 14009KT 32/14 A3002 RMK A01 T03170135  RH  033%=      5-min Rain = 0
KCO1 210254Z 15009KT 32/14 A3002 RMK A01 T03160135  RH  033%=      5-min Rain = 0
KCO1 210255Z 14009KT 32/14 A3002 RMK A01 T03160135  RH  033%=      5-min Rain = 0
KCO1 210256Z 14010KT 32/14 A3002 RMK A01 T03160135  RH  033%=      5-min Rain = 0
KCO1 210257Z 15009KT 32/14 A3002 RMK A01 T03150135  RH  033%=      5-min Rain = 0
KCO1 210258Z 15009KT 32/14 A3002 RMK A01 T03150135  RH  033%=      5-min Rain = 0
KCO1 210259Z 14009KT 32/14 A3003 RMK A01 T03150136  RH  034%=      5-min Rain = 0
KCO1 210300Z 14009KT 31/14 A3002 RMK A01 T03140136  RH  034%=      5-min Rain = 0
KCO1 210301Z 15009KT 31/14 A3003 RMK A01 T03140136  RH  034%=      5-min Rain = 0
KCO1 210302Z 14009KT 31/14 A3003 RMK A01 T03140136  RH  034%=      5-min Rain = 0
KCO1 210303Z 15009KT 31/14 A3003 RMK A01 T03140136  RH  034%=      5-min Rain = 0
KCO1 210304Z 14009KT 31/14 A3003 RMK A01 T03140137  RH  034%=      5-min Rain = 0
KCO1 210305Z 14011KT 31/14 A3003 RMK A01 T03140137  RH  034%=      5-min Rain = 0
KCO1 210306Z 14011KT 31/14 A3003 RMK A01 T03140137  RH  034%=      5-min Rain = 0
KCO1 210307Z 14009KT 31/14 A3003 RMK A01 T03140136  RH  034%=      5-min Rain = 0
KCO1 210308Z 14011KT 31/14 A3003 RMK A01 T03140137  RH  034%=      5-min Rain = 0
KCO1 210309Z 14010KT 31/14 A3003 RMK A01 T03140137  RH  034%=      5-min Rain = 0
KCO1 210310Z 14009KT 31/14 A3003 RMK A01 T03140137  RH  034%=      5-min Rain = 0
KCO1 210311Z 14010KT 31/14 A3003 RMK A01 T03140138  RH  034%=      5-min Rain = 0
KCO1 210312Z 14010KT 31/14 A3003 RMK A01 T03130137  RH  034%=      5-min Rain = 0
KCO1 210313Z 14010KT 31/14 A3003 RMK A01 T03130138  RH  034%=      5-min Rain = 0
KCO1 210314Z 14010KT 31/14 A3003 RMK A01 T03130138  RH  034%=      5-min Rain = 0
KCO1 210315Z 15009KT 31/14 A3003 RMK A01 T03130138  RH  035%=      5-min Rain = 0
KCO1 210316Z 14010KT 31/14 A3003 RMK A01 T03120138  RH  035%=      5-min Rain = 0
KCO1 210317Z 14010KT 31/14 A3003 RMK A01 T03120138  RH  035%=      5-min Rain = 0
KCO1 210318Z 15009KT 31/14 A3003 RMK A01 T03120138  RH  035%=      5-min Rain = 0
KCO1 210319Z 15009KT 31/14 A3003 RMK A01 T03120139  RH  035%=      5-min Rain = 0
KCO1 210320Z 15009KT 31/14 A3003 RMK A01 T03120139  RH  035%=      5-min Rain = 0
KCO1 210321Z 14007KT 31/14 A3003 RMK A01 T03110139  RH  035%=      5-min Rain = 0
KCO1 210322Z 15009KT 31/14 A3003 RMK A01 T03100139  RH  035%=      5-min Rain = 0
KCO1 210323Z 14009KT 31/14 A3003 RMK A01 T03100139  RH  035%=      5-min Rain = 0
KCO1 210324Z 14008KT 31/14 A3003 RMK A01 T03100139  RH  035%=      5-min Rain = 0
KCO1 210325Z 15008KT 31/14 A3003 RMK A01 T03090139  RH  036%=      5-min Rain = 0
KCO1 210326Z 15009KT 31/14 A3003 RMK A01 T03080139  RH  036%=      5-min Rain = 0
KCO1 210327Z 15009KT 31/14 A3003 RMK A01 T03080139  RH  036%=      5-min Rain = 0
KCO1 210328Z 15009KT 31/14 A3003 RMK A01 T03080139  RH  036%=      5-min Rain = 0
KCO1 210329Z 15008KT 31/14 A3003 RMK A01 T03080140  RH  036%=      5-min Rain = 0
KCO1 210330Z 14007KT 31/14 A3003 RMK A01 T03080140  RH  036%=      5-min Rain = 0
KCO1 210331Z 15009KT 31/14 A3003 RMK A01 T03080140  RH  036%=      5-min Rain = 0
KCO1 210332Z 15008KT 31/14 A3003 RMK A01 T03070140  RH  036%=      5-min Rain = 0
KCO1 210333Z 15008KT 31/14 A3003 RMK A01 T03070140  RH  036%=      5-min Rain = 0
KCO1 210334Z 15009KT 31/14 A3003 RMK A01 T03070140  RH  036%=      5-min Rain = 0
KCO1 210335Z 14009KT 31/14 A3003 RMK A01 T03070140  RH  036%=      5-min Rain = 0
KCO1 210336Z 14009KT 31/14 A3003 RMK A01 T03070141  RH  036%=      5-min Rain = 0
KCO1 210337Z 15008KT 31/14 A3003 RMK A01 T03070140  RH  036%=      5-min Rain = 0
KCO1 210338Z 14009KT 31/14 A3003 RMK A01 T03060140  RH  036%=      5-min Rain = 0
KCO1 210339Z 15009KT 31/14 A3003 RMK A01 T03060141  RH  037%=      5-min Rain = 0
KCO1 210340Z 15009KT 31/14 A3003 RMK A01 T03060141  RH  037%=      5-min Rain = 0
KCO1 210341Z 14009KT 31/14 A3004 RMK A01 T03060141  RH  037%=      5-min Rain = 0
KCO1 210342Z 15008KT 31/14 A3004 RMK A01 T03050141  RH  037%=      5-min Rain = 0
KCO1 210343Z 15008KT 31/14 A3004 RMK A01 T03060141  RH  037%=      5-min Rain = 0
KCO1 210344Z 15009KT 31/14 A3004 RMK A01 T03050141  RH  037%=      5-min Rain = 0
KCO1 210345Z 15009KT 31/14 A3004 RMK A01 T03050142  RH  037%=      5-min Rain = 0
KCO1 210346Z 15009KT 31/14 A3004 RMK A01 T03050142  RH  037%=      5-min Rain = 0
KCO1 210347Z 15009KT 31/14 A3004 RMK A01 T03050142  RH  037%=      5-min Rain = 0
KCO1 210348Z 15009KT 31/14 A3004 RMK A01 T03050142  RH  037%=      5-min Rain = 0
KCO1 210349Z 14009KT 30/14 A3004 RMK A01 T03040142  RH  037%=      5-min Rain = 0
KCO1 210350Z 15009KT 30/14 A3004 RMK A01 T03040142  RH  037%=      5-min Rain = 0
KCO1 210351Z 15008KT 30/14 A3004 RMK A01 T03040142  RH  037%=      5-min Rain = 0
KCO1 210352Z 14008KT 30/14 A3004 RMK A01 T03030142  RH  037%=      5-min Rain = 0
KCO1 210353Z 15008KT 30/14 A3004 RMK A01 T03030142  RH  038%=      5-min Rain = 0
KCO1 210354Z 15008KT 30/14 A3004 RMK A01 T03020142  RH  038%=      5-min Rain = 0
KCO1 210355Z 15008KT 30/14 A3004 RMK A01 T03020143  RH  038%=      5-min Rain = 0
KCO1 210356Z 15008KT 30/14 A3004 RMK A01 T03020143  RH  038%=      5-min Rain = 0
KCO1 210357Z 15008KT 30/14 A3004 RMK A01 T03020143  RH  038%=      5-min Rain = 0
KCO1 210358Z 15008KT 30/14 A3004 RMK A01 T03010143  RH  038%=      5-min Rain = 0
KCO1 210359Z 15009KT 30/14 A3004 RMK A01 T03010143  RH  038%=      5-min Rain = 0
KCO1 210400Z 15008KT 30/14 A3004 RMK A01 T03010143  RH  038%=      5-min Rain = 0
KCO1 210401Z 15009KT 30/14 A3004 RMK A01 T03010143  RH  038%=      5-min Rain = 0
KCO1 210402Z 15009KT 30/14 A3004 RMK A01 T03010143  RH  038%=      5-min Rain = 0
KCO1 210403Z 15007KT 30/14 A3004 RMK A01 T03000143  RH  038%=      5-min Rain = 0
KCO1 210404Z 15008KT 30/14 A3004 RMK A01 T03000143  RH  038%=      5-min Rain = 0
KCO1 210405Z 15008KT 30/14 A3004 RMK A01 T03000143  RH  038%=      5-min Rain = 0
KCO1 210406Z 14008KT 30/14 A3004 RMK A01 T03000143  RH  038%=      5-min Rain = 0
KCO1 210407Z 15007KT 30/14 A3004 RMK A01 T03000143  RH  038%=      5-min Rain = 0
KCO1 210408Z 15007KT 30/14 A3004 RMK A01 T02990143  RH  038%=      5-min Rain = 0
KCO1 210409Z 15007KT 30/14 A3004 RMK A01 T02990143  RH  039%=      5-min Rain = 0
KCO1 210410Z 15008KT 30/14 A3004 RMK A01 T02990143  RH  039%=      5-min Rain = 0
KCO1 210411Z 15009KT 30/14 A3004 RMK A01 T02990143  RH  039%=      5-min Rain = 0
KCO1 210412Z 15007KT 30/14 A3004 RMK A01 T02990143  RH  039%=      5-min Rain = 0
KCO1 210413Z 14007KT 30/14 A3004 RMK A01 T02990143  RH  039%=      5-min Rain = 0
KCO1 210414Z 15007KT 30/14 A3004 RMK A01 T02990143  RH  039%=      5-min Rain = 0
KCO1 210415Z 15006KT 30/14 A3004 RMK A01 T02990143  RH  039%=      5-min Rain = 0
KCO1 210416Z 15007KT 30/14 A3004 RMK A01 T02980142  RH  039%=      5-min Rain = 0
KCO1 210417Z 15007KT 30/14 A3004 RMK A01 T02980143  RH  039%=      5-min Rain = 0
KCO1 210418Z 15006KT 30/14 A3004 RMK A01 T02970143  RH  039%=      5-min Rain = 0
KCO1 210419Z 15007KT 30/14 A3004 RMK A01 T02970143  RH  039%=      5-min Rain = 0
KCO1 210420Z 14006KT 30/14 A3004 RMK A01 T02970142  RH  039%=      5-min Rain = 0
KCO1 210421Z 15007KT 30/14 A3004 RMK A01 T02960143  RH  039%=      5-min Rain = 0
KCO1 210422Z 14007KT 30/14 A3004 RMK A01 T02960143  RH  039%=      5-min Rain = 0
KCO1 210423Z 15007KT 30/14 A3004 RMK A01 T02950143  RH  039%=      5-min Rain = 0
KCO1 210424Z 15007KT 30/14 A3004 RMK A01 T02950143  RH  040%=      5-min Rain = 0
KCO1 210425Z 15006KT 29/14 A3004 RMK A01 T02940143  RH  040%=      5-min Rain = 0
KCO1 210426Z 15006KT 29/14 A3004 RMK A01 T02940143  RH  040%=      5-min Rain = 0
KCO1 210427Z 15007KT 29/14 A3004 RMK A01 T02930143  RH  040%=      5-min Rain = 0
KCO1 210428Z 15007KT 29/14 A3004 RMK A01 T02930143  RH  040%=      5-min Rain = 0
KCO1 210429Z 15007KT 29/14 A3004 RMK A01 T02930143  RH  040%=      5-min Rain = 0
KCO1 210430Z 15007KT 29/14 A3004 RMK A01 T02930143  RH  040%=      5-min Rain = 0
KCO1 210431Z 15008KT 29/14 A3004 RMK A01 T02930143  RH  040%=      5-min Rain = 0
KCO1 210432Z 15007KT 29/14 A3004 RMK A01 T02930143  RH  040%=      5-min Rain = 0
KCO1 210433Z 15008KT 29/14 A3004 RMK A01 T02930142  RH  040%=      5-min Rain = 0
KCO1 210434Z 15008KT 29/14 A3004 RMK A01 T02930143  RH  040%=      5-min Rain = 0
KCO1 210435Z 15008KT 29/14 A3004 RMK A01 T02930143  RH  040%=      5-min Rain = 0
KCO1 210436Z 15008KT 29/14 A3004 RMK A01 T02930143  RH  040%=      5-min Rain = 0
KCO1 210437Z 15007KT 29/14 A3004 RMK A01 T02930143  RH  040%=      5-min Rain = 0
KCO1 210438Z 15007KT 29/14 A3004 RMK A01 T02920143  RH  040%=      5-min Rain = 0
KCO1 210439Z 15007KT 29/14 A3004 RMK A01 T02920143  RH  040%=      5-min Rain = 0
KCO1 210440Z 15007KT 29/14 A3004 RMK A01 T02910143  RH  040%=      5-min Rain = 0
KCO1 210441Z 14006KT 29/14 A3004 RMK A01 T02910142  RH  040%=      5-min Rain = 0
KCO1 210442Z 15007KT 29/14 A3004 RMK A01 T02900143  RH  040%=      5-min Rain = 0
KCO1 210443Z 15007KT 29/14 A3004 RMK A01 T02900142  RH  041%=      5-min Rain = 0
KCO1 210444Z 15007KT 29/14 A3004 RMK A01 T02900143  RH  041%=      5-min Rain = 0
KCO1 210445Z 15007KT 29/14 A3004 RMK A01 T02890142  RH  041%=      5-min Rain = 0
KCO1 210446Z 15007KT 29/14 A3004 RMK A01 T02890143  RH  041%=      5-min Rain = 0
KCO1 210447Z 15007KT 29/14 A3004 RMK A01 T02900143  RH  041%=      5-min Rain = 0
KCO1 210448Z 15007KT 29/14 A3004 RMK A01 T02890143  RH  041%=      5-min Rain = 0
KCO1 210449Z 15007KT 29/14 A3004 RMK A01 T02890143  RH  041%=      5-min Rain = 0
KCO1 210450Z 15007KT 29/14 A3004 RMK A01 T02890143  RH  041%=      5-min Rain = 0
KCO1 210451Z 15006KT 29/14 A3004 RMK A01 T02890143  RH  041%=      5-min Rain = 0
KCO1 210452Z 15007KT 29/14 A3004 RMK A01 T02890143  RH  041%=      5-min Rain = 0
KCO1 210453Z 15006KT 29/14 A3004 RMK A01 T02890143  RH  041%=      5-min Rain = 0
KCO1 210454Z 15007KT 29/14 A3004 RMK A01 T02880143  RH  041%=      5-min Rain = 0
KCO1 210455Z 15007KT 29/14 A3004 RMK A01 T02880143  RH  041%=      5-min Rain = 0
KCO1 210456Z 15007KT 29/14 A3004 RMK A01 T02880143  RH  041%=      5-min Rain = 0
KCO1 210457Z 15006KT 29/14 A3004 RMK A01 T02870143  RH  041%=      5-min Rain = 0
KCO1 210458Z 15007KT 29/14 A3004 RMK A01 T02870143  RH  041%=      5-min Rain = 0
KCO1 210459Z 15007KT 29/14 A3004 RMK A01 T02860143  RH  041%=      5-min Rain = 0

Page generated in 0.079 seconds.